GFSSW_sfc_thetae_000.txt.gz
Theta_e
314 314 314 314 313 313 313 313 314 313 313 314 314 315 316 316 317 316 308 312 314 322 319 312 311 309 310 306 306 305 300 296 296 296 298 303 301 308 310 308 309 311 314 318 322
314 314 314 313 313 313 313 314 313 313 313 314 314 314 315 316 318 312 317 320 320 320 311 310 309 309 307 305 306 306 299 297 301 302 301 302 303 304 305 307 309 312 314 317 321
313 313 314 313 313 313 313 313 312 312 313 314 314 315 315 317 310 310 321 319 320 317 313 312 310 309 305 307 306 305 299 301 303 305 305 302 302 305 304 302 307 310 312 314 316
313 313 313 314 314 313 314 313 313 313 314 315 315 315 316 319 299 314 324 321 320 316 312 312 310 307 305 302 306 301 304 305 305 304 303 302 305 303 304 305 309 313 314 313 312
314 314 314 315 315 314 315 314 314 314 315 315 315 316 318 310 309 318 322 321 315 312 311 309 307 307 303 304 305 303 304 306 306 305 305 304 303 302 304 306 308 309 308 309 309
314 314 314 314 315 315 315 314 314 313 315 315 316 316 315 305 318 319 315 315 315 314 312 311 308 311 307 305 304 306 306 306 307 306 305 304 304 304 305 307 306 306 307 308 307
314 314 314 314 314 314 314 314 314 313 315 315 316 319 313 309 318 319 317 315 316 313 311 310 311 309 307 306 308 306 302 305 304 305 304 305 302 302 306 307 306 306 307 307 307
314 314 313 313 313 313 314 313 313 313 315 315 316 319 308 317 320 316 319 316 317 316 313 313 314 311 309 309 305 302 302 297 302 303 304 303 296 303 307 306 305 307 307 306 307
313 313 313 312 312 313 313 313 313 314 315 316 319 315 307 319 313 315 316 313 314 315 315 312 312 307 307 303 300 299 294 295 297 302 301 300 297 302 306 305 304 306 307 307 307
313 313 313 312 312 312 312 314 314 316 316 316 315 310 311 307 312 312 316 315 312 313 311 309 308 304 303 300 292 293 294 295 295 299 299 298 298 303 305 304 304 305 306 307 307
313 313 313 312 313 312 316 322 315 311 314 308 307 307 308 312 313 312 313 314 312 310 303 305 302 297 298 299 298 297 295 295 297 299 297 298 299 301 304 304 304 304 305 306 307
312 312 312 312 312 312 323 316 314 316 306 311 309 308 309 310 305 309 314 308 306 301 304 303 298 300 300 299 298 297 296 296 297 299 297 298 297 302 301 301 302 303 304 305 306
311 312 311 310 313 320 321 317 321 320 306 306 308 307 307 309 304 305 308 307 302 299 299 298 299 300 299 298 297 298 295 295 294 298 300 297 298 299 301 302 302 303 304 304 303
311 311 310 309 315 319 315 318 322 321 302 299 303 306 307 306 302 307 307 305 302 298 299 298 301 298 298 296 297 294 297 296 295 294 291 296 290 297 299 300 302 303 304 305 304
311 311 310 314 318 315 314 319 323 321 292 301 303 311 307 303 303 305 307 305 299 298 299 297 297 296 296 296 297 295 298 296 295 293 293 293 291 297 299 297 299 302 303 304 305
310 311 310 314 320 314 319 323 322 305 289 298 302 301 301 302 302 305 303 305 302 298 298 297 300 299 298 299 297 298 298 298 294 293 288 291 291 295 298 297 300 302 303 304 305
310 310 315 317 315 320 324 322 303 295 299 295 297 300 299 298 299 300 298 298 296 293 293 296 296 299 299 297 298 299 296 291 289 290 288 292 290 295 300 300 300 301 302 304 305
309 311 313 318 321 322 321 312 293 294 296 299 298 299 296 298 298 298 296 296 298 296 295 292 291 295 299 297 295 294 294 290 282 285 288 294 288 296 301 302 303 302 302 304 305
310 323 320 318 321 322 314 302 296 296 298 296 298 296 296 297 297 297 296 295 297 299 293 292 292 299 297 299 298 294 294 295 288 285 284 291 294 299 302 301 301 302 303 304 305
324 320 315 318 321 316 311 295 297 299 299 299 293 296 293 294 294 295 295 297 296 298 299 295 291 296 297 298 298 296 297 291 292 284 282 289 291 293 298 299 301 302 303 304 305
323 313 317 320 318 312 301 297 298 300 300 298 296 295 295 294 295 294 294 297 298 298 300 298 294 295 299 297 296 296 295 292 292 290 285 284 289 300 299 301 301 302 303 304 306
319 307 317 318 308 306 301 299 297 299 302 301 300 298 296 296 295 295 294 298 300 299 296 298 296 290 294 300 297 297 295 294 289 288 290 286 287 302 303 303 301 302 304 305 306
312 311 318 317 302 302 301 300 301 300 300 299 298 299 300 297 294 296 297 301 300 299 299 299 294 288 292 294 295 294 295 295 295 291 287 284 289 302 302 303 304 303 304 305 305
312 302 311 311 308 304 301 299 299 303 301 301 299 301 300 298 299 296 297 300 302 302 300 300 296 292 288 292 296 293 295 296 293 286 288 290 293 298 300 301 303 303 304 304 303
309 303 302 303 303 304 303 301 299 298 302 301 300 299 298 293 294 295 298 299 301 300 301 300 291 294 295 296 294 293 293 294 292 292 287 291 293 297 300 301 302 303 302 301 300
309 308 306 303 300 301 298 299 298 299 299 298 298 299 299 296 297 295 298 299 297 300 299 299 291 291 289 294 294 291 293 293 294 294 294 294 294 302 303 303 301 300 300 298 299
309 306 311 294 299 300 300 300 299 301 301 302 302 300 298 300 303 304 304 303 302 299 298 295 292 289 285 291 289 285 290 293 295 297 295 291 296 301 299 299 298 297 298 298 300

GFSSW_sfc_thetae_003.txt.gz
Theta_e
315 315 314 314 314 314 314 314 314 314 314 315 316 316 317 317 317 319 311 313 315 323 318 317 314 312 312 308 309 310 302 298 298 299 300 304 303 308 310 307 308 311 313 323 331
315 315 315 314 314 314 314 315 314 314 314 315 315 316 316 316 320 312 318 321 321 322 316 312 309 310 309 306 309 306 302 299 303 303 302 303 304 305 305 306 308 310 318 325 328
315 313 314 314 314 314 314 314 314 313 314 315 316 316 316 318 314 312 325 324 322 318 318 315 313 309 306 308 307 307 301 302 304 306 306 305 304 306 305 303 306 308 313 320 323
315 315 315 315 315 315 314 314 314 314 315 316 317 316 317 323 302 316 326 326 325 318 316 313 311 307 306 304 307 303 305 305 306 307 306 305 307 305 306 307 310 312 315 318 318
314 315 315 315 316 316 315 315 315 315 315 316 317 317 320 313 311 320 325 325 319 317 313 311 308 308 304 305 307 305 305 307 307 307 307 308 306 306 307 309 311 313 314 315 315
315 314 315 315 315 316 316 316 315 315 315 316 317 317 321 306 319 321 321 320 319 317 315 314 311 312 308 307 306 307 307 308 308 308 308 305 305 306 308 311 310 310 311 312 312
315 314 314 314 315 315 315 316 315 315 315 317 317 322 315 310 320 322 321 319 320 318 313 314 314 312 311 307 310 308 305 306 307 306 306 307 303 304 308 309 308 309 310 311 312
314 314 314 314 314 314 315 315 314 315 315 317 317 325 310 319 323 320 321 319 320 319 316 316 316 312 312 311 308 304 305 299 304 304 305 304 297 305 309 308 307 308 309 310 311
314 314 313 313 313 314 314 314 314 315 316 318 322 318 308 318 315 319 320 315 317 318 317 315 313 309 310 305 303 302 297 297 299 304 303 302 299 305 308 307 306 307 308 310 311
314 314 313 313 313 313 313 314 316 316 319 322 318 312 312 309 315 317 320 318 314 315 313 311 310 307 306 302 294 296 297 299 299 302 302 301 301 305 308 307 307 307 308 308 309
313 313 313 313 313 313 317 324 317 313 316 310 309 308 309 314 317 314 317 315 314 311 305 307 305 300 301 302 301 300 299 299 302 303 301 301 302 304 307 306 305 306 307 308 309
312 313 312 312 313 313 324 318 318 320 307 312 311 310 311 313 307 310 315 309 307 303 305 306 301 302 303 302 301 301 300 299 302 304 302 302 301 305 304 304 304 305 306 307 308
312 312 312 311 313 323 324 320 326 326 309 307 310 308 309 311 305 307 310 308 304 301 301 300 302 303 302 301 299 301 299 298 298 302 304 301 300 302 303 306 305 306 307 307 306
311 312 311 311 316 327 321 324 328 328 305 301 305 308 309 309 304 311 310 307 305 300 301 301 303 300 300 299 300 297 301 300 299 298 294 302 292 300 302 302 303 305 306 307 308
311 312 311 315 324 320 320 325 330 328 296 303 305 313 310 305 306 307 310 308 301 301 301 300 299 298 299 298 300 298 302 300 300 298 297 297 294 300 302 299 302 304 305 307 308
311 312 312 318 326 321 325 328 328 307 292 300 304 303 303 305 304 307 306 308 305 301 301 299 303 302 300 302 301 302 302 303 301 298 292 297 294 296 300 300 301 304 306 306 308
311 311 319 325 320 327 330 325 305 298 303 298 300 302 302 301 302 302 301 302 300 297 297 300 299 302 302 301 303 303 299 294 292 292 291 297 294 297 302 303 303 303 304 306 308
310 313 318 324 327 330 326 310 298 299 299 302 301 301 299 301 301 301 300 300 303 302 299 295 294 298 302 300 298 299 298 292 284 287 290 297 291 297 304 304 304 304 305 306 308
309 330 324 326 328 329 317 303 299 300 301 300 300 298 299 300 299 300 299 298 300 302 296 295 295 303 300 302 302 299 297 299 292 293 288 293 298 302 305 303 303 304 306 307 307
326 325 319 327 329 324 313 298 300 302 302 301 296 298 296 297 297 299 298 300 299 302 304 299 293 301 301 303 302 300 302 294 295 285 284 292 293 295 300 302 304 304 304 305 308
327 317 322 328 325 316 306 301 301 303 304 301 299 297 298 297 298 298 297 300 302 302 304 302 297 298 302 300 299 299 298 297 296 294 287 286 291 303 302 304 304 305 305 307 307
323 312 323 327 313 312 306 303 298 303 305 303 303 301 299 300 299 298 297 300 304 304 299 302 298 293 297 303 302 300 299 299 292 290 293 292 290 305 305 305 304 305 306 307 307
315 314 324 325 306 307 305 303 304 302 303 302 301 303 303 300 297 299 300 304 304 302 301 302 296 290 294 298 300 299 301 300 298 296 290 286 290 305 306 305 306 305 306 307 307
315 308 315 317 314 307 304 303 301 305 303 304 303 304 302 300 302 299 300 303 304 304 302 302 298 294 290 294 298 295 297 299 298 290 292 293 295 299 302 303 304 305 306 306 306
314 308 308 307 308 308 307 304 302 301 305 305 302 302 300 296 297 297 300 302 304 302 303 303 294 297 297 298 297 296 296 296 295 296 291 294 295 299 301 302 303 304 304 303 304
313 312 312 308 305 305 301 302 300 301 302 301 301 302 302 299 300 298 301 301 300 303 302 302 293 294 291 296 296 293 296 296 296 296 296 297 296 303 304 304 302 302 302 302 303
316 314 317 302 303 304 303 302 301 303 304 304 304 303 300 303 306 306 307 306 305 302 301 298 293 290 285 294 291 286 292 296 297 299 298 293 298 301 299 299 300 302 303 302 303

GFSSW_sfc_thetae_006.txt.gz
Theta_e
315 315 315 315 315 315 315 315 315 315 316 316 316 317 318 318 316 320 310 314 315 323 321 315 316 312 312 308 309 310 300 296 297 298 299 304 302 307 309 306 308 309 313 325 331
315 315 315 315 315 315 315 315 315 315 315 315 316 317 318 317 319 311 319 324 323 323 316 312 309 310 307 307 308 305 300 298 302 302 302 303 303 304 304 305 306 309 314 322 327
315 315 315 315 315 315 315 315 315 315 315 316 317 318 317 317 315 310 323 326 325 319 317 316 314 310 306 308 307 305 299 302 304 304 304 303 303 306 303 302 307 306 311 316 319
315 315 315 316 316 316 316 316 315 315 316 316 317 318 318 321 301 314 326 327 328 319 316 314 312 308 305 304 307 302 304 305 306 306 305 304 307 305 306 305 310 311 313 314 315
315 315 315 316 317 317 317 316 316 316 316 316 317 318 321 313 310 320 326 326 320 318 314 311 309 309 304 305 307 304 305 307 308 308 307 307 305 305 305 309 311 311 313 313 314
315 315 315 315 316 316 317 317 316 316 316 316 318 317 319 306 319 321 321 320 319 317 314 313 310 311 308 307 306 307 307 306 307 307 307 305 304 305 306 310 309 309 310 312 313
315 315 315 315 315 316 317 316 316 316 316 317 318 321 314 309 320 322 320 319 319 317 312 313 315 312 311 307 309 307 304 307 307 305 303 306 301 301 308 310 307 307 309 310 311
315 315 314 314 315 315 316 316 316 316 317 317 318 322 310 319 322 319 320 318 319 319 316 315 316 312 311 310 308 304 305 298 304 304 305 303 296 304 308 307 305 307 308 309 310
315 315 314 314 314 315 315 315 315 316 317 318 322 321 308 320 315 318 319 315 317 318 318 316 314 309 310 305 302 302 296 298 300 306 303 302 298 304 308 306 305 307 307 308 309
314 314 314 314 315 315 315 315 317 317 319 322 321 311 312 309 314 316 319 318 314 314 313 311 310 306 305 301 292 295 296 299 299 303 303 301 300 305 307 307 306 307 308 308 308
314 314 314 313 315 314 318 322 315 315 315 310 309 309 310 314 317 313 315 315 314 311 304 307 304 298 300 302 301 300 299 298 301 304 302 300 301 304 306 305 305 306 307 307 309
313 313 313 313 315 316 323 319 318 321 306 311 310 310 311 313 308 310 314 309 307 302 305 303 301 302 303 303 301 299 298 298 301 303 302 301 301 304 304 304 305 305 306 307 308
313 313 313 312 314 323 324 320 327 327 312 306 310 308 309 312 305 306 309 307 304 302 301 299 302 303 302 301 298 298 298 297 297 301 304 301 299 302 303 304 305 306 307 307 307
312 312 312 312 315 325 320 325 331 332 306 302 306 308 310 309 305 311 310 307 306 300 300 301 303 301 300 299 299 295 302 300 299 298 293 301 291 299 301 301 303 305 307 307 308
312 313 313 312 328 319 322 327 331 330 296 304 305 313 310 305 306 307 312 308 302 301 301 300 300 298 298 299 301 298 302 301 301 299 297 298 293 298 301 299 301 305 306 307 308
312 312 315 322 331 323 326 331 329 308 294 301 305 304 304 305 305 307 307 309 307 301 302 300 303 302 300 302 303 304 302 302 303 298 292 297 295 295 298 300 302 304 306 307 307
311 312 320 327 322 328 332 326 306 298 303 300 301 303 302 301 302 303 302 302 299 296 298 301 300 303 303 300 304 302 298 292 291 293 291 298 294 296 303 304 303 303 304 307 308
311 311 322 327 329 332 328 312 298 299 300 304 302 302 300 301 302 302 302 300 303 301 298 295 294 299 303 300 297 299 297 293 284 286 288 296 291 296 304 305 305 305 307 307 308
310 331 327 329 332 332 318 303 299 301 302 301 301 298 300 301 299 301 300 299 300 301 295 295 295 303 303 302 301 298 296 300 292 292 289 292 297 303 305 304 304 305 306 306 307
326 324 320 330 332 327 315 299 301 303 304 302 297 299 297 299 298 300 299 301 300 303 304 300 292 302 302 305 304 300 303 293 295 285 283 289 291 293 300 302 304 305 306 307 308
328 318 323 328 328 317 305 301 301 304 305 302 300 298 298 298 300 298 298 301 303 302 304 303 298 297 301 300 298 298 296 298 297 294 286 284 289 301 300 302 304 304 306 306 307
328 312 325 328 313 312 305 303 298 304 306 304 304 303 301 301 299 299 298 301 305 304 299 303 298 292 296 303 303 300 298 298 290 289 292 290 289 303 305 306 305 306 306 307 307
315 314 327 326 306 307 305 303 305 303 304 303 302 304 304 301 297 300 301 305 305 303 300 301 297 289 292 298 301 298 299 299 298 294 289 285 289 304 305 305 306 305 305 305 306
315 304 315 317 314 307 304 303 301 306 304 305 304 305 303 301 303 299 300 304 305 304 302 302 297 293 288 292 297 294 296 298 296 289 290 291 293 299 302 302 304 304 303 304 304
313 309 310 309 308 308 307 304 302 301 306 306 303 302 301 295 297 297 301 302 305 303 304 302 293 296 296 297 296 295 294 295 294 294 289 292 294 298 301 301 301 303 303 303 303
312 311 312 307 307 305 301 302 301 302 302 301 300 303 303 300 299 297 300 301 300 304 303 303 292 292 290 295 295 292 295 295 295 295 295 296 295 302 302 302 301 302 302 302 301
317 315 317 303 306 304 304 302 302 303 305 305 304 303 298 303 306 306 306 305 304 301 300 299 293 287 286 292 290 285 291 294 296 297 296 291 296 301 299 300 300 301 302 300 300

GFSSW_sfc_thetae_009.txt.gz
Theta_e
316 315 315 316 317 316 315 316 316 316 316 316 317 317 319 318 317 318 304 309 311 323 323 312 310 309 305 299 299 297 290 286 289 291 291 294 294 298 300 299 301 305 315 318 326
315 316 316 315 315 315 315 316 316 316 316 316 317 318 319 317 317 307 316 322 324 326 312 310 307 306 298 298 300 296 288 290 295 295 292 295 296 297 297 297 298 305 320 325 326
316 315 315 315 315 316 316 316 315 316 316 317 318 319 318 316 315 305 321 326 326 325 312 311 311 307 299 299 298 295 291 297 298 301 298 297 300 301 295 294 300 301 308 318 321
316 316 315 315 317 317 317 316 316 316 317 317 318 318 317 317 297 308 324 325 327 322 313 309 307 302 298 296 300 295 300 301 299 301 300 298 299 300 296 297 305 304 308 309 310
315 315 315 316 317 317 317 316 316 317 317 317 318 318 317 310 307 315 324 322 320 315 310 309 305 303 299 300 302 299 300 302 303 303 301 303 300 300 299 302 306 306 309 307 309
315 315 315 315 316 317 316 316 316 316 316 317 318 316 314 302 315 317 317 316 314 311 308 308 306 307 304 302 299 303 302 302 302 302 302 300 300 298 300 301 304 305 305 306 306
315 315 315 315 316 316 316 316 315 316 316 317 318 318 314 307 313 313 317 313 313 313 308 309 309 305 306 303 305 304 298 301 301 300 297 297 295 294 301 303 302 303 304 305 306
315 315 314 314 314 315 315 315 315 316 316 317 318 316 306 317 313 315 314 313 315 315 312 310 310 307 306 306 304 300 298 292 300 300 300 297 290 297 299 302 300 300 301 303 304
315 314 314 314 314 315 314 314 315 316 317 317 315 314 304 317 312 314 313 312 314 314 313 315 309 304 304 298 295 295 289 293 297 299 297 295 292 299 302 300 298 299 299 301 302
314 314 314 313 314 315 315 315 317 316 318 319 319 308 310 308 311 312 311 312 311 310 309 308 303 298 296 292 285 289 290 294 292 296 297 295 294 298 301 300 297 297 298 297 298
314 314 313 313 314 313 316 317 308 308 311 303 304 306 307 310 313 308 310 308 309 307 299 301 296 290 292 296 297 295 293 291 294 299 296 294 294 297 297 297 296 297 298 299 301
313 313 313 313 314 314 314 314 313 316 303 309 308 307 311 310 305 306 309 303 303 297 300 297 293 298 300 299 297 295 293 292 296 299 298 295 295 297 298 297 298 298 298 299 300
312 313 313 312 312 318 314 313 323 323 308 306 309 307 308 309 304 303 305 303 300 298 296 294 297 301 299 298 295 293 293 293 293 297 298 294 292 294 297 298 300 300 300 300 300
312 313 312 311 312 318 312 319 325 323 302 300 304 306 309 308 304 307 306 304 303 297 296 297 301 298 297 297 296 291 298 297 296 293 287 295 285 292 294 295 298 300 298 299 300
312 313 313 312 318 313 316 321 322 322 285 304 303 308 307 303 303 304 306 305 297 297 297 296 295 294 295 295 297 294 299 297 296 293 290 292 286 290 294 293 295 297 299 299 300
311 312 313 318 318 316 322 324 320 299 285 300 305 303 303 304 304 304 305 306 304 300 298 296 299 297 296 299 299 301 298 297 297 292 284 291 289 288 292 294 297 299 299 300 300
311 312 316 323 314 321 323 318 298 287 304 298 300 302 301 300 302 301 300 298 294 291 292 298 296 298 301 296 300 297 292 283 282 282 282 293 289 290 297 298 298 298 298 299 299
310 310 320 324 323 323 321 305 290 298 298 303 301 301 298 299 300 300 298 295 298 297 293 291 288 297 301 297 294 294 293 282 278 279 282 292 286 291 300 300 301 301 298 300 301
310 317 317 321 325 322 311 293 290 298 301 299 300 296 297 300 297 298 296 295 297 298 292 291 292 301 301 300 298 294 289 296 287 285 281 286 292 297 299 301 302 302 302 300 301
314 319 313 321 322 319 304 294 298 302 302 302 296 298 294 296 296 296 296 299 299 301 300 297 289 299 301 301 300 297 299 287 285 278 279 285 286 288 295 298 300 299 300 300 302
318 311 316 320 321 311 294 294 299 303 304 300 298 298 298 296 298 296 296 299 301 300 301 299 293 292 298 297 294 293 291 293 295 288 282 280 284 296 297 299 299 301 303 302 301
315 303 316 320 306 304 295 301 299 303 306 304 303 301 298 299 297 297 297 299 303 301 297 298 293 283 292 299 301 296 296 295 286 285 284 283 287 300 299 300 302 301 301 301 301
309 309 319 317 294 292 300 303 304 303 302 303 301 302 302 298 292 298 299 303 302 301 297 297 288 281 287 293 297 294 296 295 293 285 285 279 285 300 300 300 301 298 299 300 301
309 292 307 309 307 301 299 300 300 305 304 304 303 303 300 298 300 295 298 303 303 302 302 300 293 287 282 288 294 291 293 294 292 279 284 285 289 294 297 296 297 298 298 298 299
307 299 302 293 299 301 302 302 300 300 304 304 301 301 298 290 293 295 300 300 302 301 301 298 286 292 293 294 295 293 292 292 290 290 285 289 289 294 295 296 297 299 300 300 300
303 303 305 299 303 301 297 299 300 300 300 301 298 301 300 294 297 293 297 296 296 299 297 299 286 288 288 293 294 290 291 292 291 291 291 291 291 296 297 299 298 298 299 298 299
309 308 306 298 297 293 294 300 301 302 303 303 301 299 292 300 301 301 301 301 300 297 292 292 286 282 286 289 288 280 287 290 292 293 292 285 291 297 296 297 298 297 298 298 299

GFSSW_sfc_thetae_012.txt.gz
Theta_e
316 316 315 316 316 317 316 316 316 316 316 317 317 318 319 319 317 315 302 308 310 324 321 311 308 307 303 298 296 294 288 285 286 289 290 294 293 297 298 299 300 310 311 313 318
316 316 316 316 315 315 316 316 316 316 316 317 317 319 319 317 317 305 315 322 324 325 307 307 305 306 298 296 298 292 286 288 294 293 289 293 293 294 295 297 302 312 319 322 326
316 315 315 315 316 316 317 316 316 316 317 317 318 319 317 316 309 304 321 323 326 324 310 309 308 305 298 297 296 296 291 295 296 297 294 295 297 299 294 294 302 311 317 321 321
316 316 316 315 316 317 317 316 316 317 317 317 317 319 317 315 295 307 324 326 328 319 311 308 305 301 297 296 298 294 297 298 297 298 297 295 295 298 299 297 304 316 320 319 319
315 316 316 316 317 317 317 316 316 316 316 317 318 318 313 305 305 314 324 320 313 312 308 305 304 301 298 298 299 296 297 300 301 301 299 300 297 298 297 299 302 307 310 314 314
315 315 315 315 316 316 316 316 315 316 316 317 319 318 312 299 313 314 314 314 311 309 306 306 303 304 302 300 298 300 300 300 300 300 299 298 297 296 299 299 301 305 304 305 306
315 314 314 315 315 316 316 316 315 315 316 317 318 318 313 304 311 310 312 311 311 310 306 306 306 304 303 301 304 301 296 299 300 298 296 296 292 293 297 300 300 302 303 304 305
315 314 314 314 314 314 315 314 314 315 316 317 318 315 302 314 311 312 312 311 313 313 310 309 308 304 303 304 303 298 295 290 297 299 298 294 289 296 297 298 298 299 301 303 304
314 314 313 313 313 313 313 313 314 316 317 317 314 311 303 316 310 311 310 309 311 312 311 312 308 302 301 294 291 292 287 289 295 298 296 293 291 297 298 298 298 297 297 299 299
314 314 313 313 312 311 311 313 316 314 316 317 317 304 308 305 308 310 308 309 307 308 307 306 301 295 293 290 284 287 288 291 289 295 296 293 293 296 297 296 296 296 296 296 299
314 313 313 312 312 312 314 315 311 304 308 300 302 303 304 308 310 307 307 307 306 305 297 299 293 289 291 293 295 292 290 289 292 296 295 292 292 296 295 293 294 294 296 297 299
313 313 313 312 312 312 316 311 311 312 302 307 305 305 308 307 303 305 306 301 301 294 297 296 291 296 298 297 294 293 291 290 294 297 295 294 293 293 294 294 295 296 295 297 298
312 313 313 311 311 315 313 312 322 320 305 303 306 305 305 306 302 302 303 301 298 296 294 292 295 299 297 295 293 291 291 291 291 294 295 294 291 292 295 296 297 297 297 297 298
312 312 312 312 311 314 311 316 319 319 296 298 302 304 306 305 302 306 304 302 299 295 294 295 298 295 295 294 293 289 295 295 293 291 286 293 284 290 292 293 296 296 296 296 298
311 312 312 314 314 311 314 318 321 315 282 302 301 306 305 301 301 302 304 302 295 295 295 294 293 292 293 293 295 292 296 295 294 290 288 290 285 289 292 292 293 295 297 296 297
311 311 312 317 312 313 318 320 316 296 283 298 302 301 301 302 301 302 303 305 303 299 297 294 297 295 294 297 298 299 296 294 294 290 283 289 287 286 290 292 295 296 298 298 297
310 310 316 320 311 317 320 312 295 286 302 296 298 300 299 297 300 299 298 296 292 289 290 296 294 296 299 295 298 295 290 282 281 281 281 291 288 287 293 296 297 297 296 297 299
310 310 317 321 319 319 314 301 288 295 296 300 299 299 296 297 297 298 296 293 297 295 291 290 287 296 299 295 292 293 291 281 278 279 282 290 284 289 297 299 300 299 298 299 299
310 315 313 316 320 319 306 289 288 295 299 297 299 295 295 298 295 297 294 294 295 296 290 289 290 299 300 299 297 293 288 294 285 283 280 285 290 295 297 298 301 300 300 299 300
311 313 309 317 317 314 296 292 295 300 300 301 294 296 292 295 295 295 294 298 297 299 298 295 288 297 299 300 298 295 296 286 284 275 279 284 285 287 293 296 299 299 297 297 298
317 305 310 318 317 303 290 291 297 301 302 299 297 296 296 295 296 294 294 298 299 298 300 296 291 291 295 295 292 292 290 291 292 285 279 279 283 293 295 297 296 297 297 296 297
310 297 308 317 302 298 292 298 299 301 304 302 301 299 297 297 295 295 295 297 300 300 295 296 290 283 290 296 298 295 292 292 281 284 282 284 285 298 296 298 298 296 298 298 298
305 304 314 312 290 287 298 301 302 301 301 301 299 300 300 296 291 296 297 301 300 299 295 295 287 280 285 290 295 292 294 293 291 284 282 277 281 296 298 297 297 296 298 298 298
303 293 302 305 303 297 297 298 298 303 302 302 300 301 298 295 298 293 296 301 301 300 301 298 291 285 281 285 291 289 292 292 289 279 283 285 287 292 294 295 297 296 297 297 298
302 296 300 291 296 297 299 301 298 298 302 302 299 299 297 289 291 293 297 298 300 300 298 295 285 289 291 292 292 292 292 292 289 288 283 287 287 291 293 294 296 297 298 298 298
301 300 301 296 301 298 295 297 298 298 300 298 297 299 298 293 294 291 295 294 294 297 294 296 285 286 287 291 292 289 292 291 290 290 289 289 288 295 296 297 297 298 298 298 297
306 306 301 293 293 290 291 298 299 301 300 301 300 296 290 298 300 300 300 299 298 295 290 290 284 282 284 287 286 283 286 288 289 291 289 284 289 295 295 296 296 297 298 297 298

GFSSW_sfc_thetae_015.txt.gz
Theta_e
316 316 316 315 315 316 316 316 316 316 316 317 317 318 319 319 317 314 299 307 308 324 321 308 306 305 301 298 295 292 287 284 285 287 290 293 292 295 296 303 301 311 307 310 322
316 316 316 317 317 316 315 316 316 316 316 317 317 318 319 318 314 303 314 322 324 324 307 306 305 304 297 295 295 290 286 288 292 291 288 293 294 293 296 301 307 308 315 317 325
316 316 316 315 315 316 316 316 316 316 316 317 318 318 318 316 303 303 321 324 326 323 308 308 306 303 297 297 294 291 290 293 295 294 294 294 294 296 294 296 307 305 312 319 321
316 316 316 316 315 316 316 316 316 316 316 318 318 319 318 312 292 305 325 327 327 318 309 306 304 300 296 296 296 293 295 296 295 298 296 294 298 296 297 296 309 310 315 319 320
315 315 315 316 316 317 316 315 316 316 316 317 318 319 311 302 303 312 324 319 310 308 305 304 302 299 297 297 297 295 296 298 299 298 296 298 296 295 296 298 301 314 317 318 317
314 315 315 315 316 316 316 315 315 315 316 317 318 318 309 298 311 311 311 312 310 308 305 304 302 302 300 299 296 299 298 298 298 298 298 296 296 295 297 297 300 312 313 314 314
315 314 314 315 315 315 315 315 315 315 316 317 319 317 308 303 309 309 311 309 308 309 304 305 304 302 301 299 302 299 295 297 297 297 295 295 292 292 295 297 299 305 312 309 310
314 314 314 314 314 314 314 314 314 315 316 317 318 315 300 312 309 310 310 309 310 310 309 307 307 303 300 302 300 295 293 289 296 296 296 293 289 295 295 295 297 298 300 302 304
314 313 313 312 313 313 313 313 314 315 317 317 314 309 302 314 308 309 307 305 307 309 309 311 306 299 298 291 289 290 285 287 292 296 296 292 290 296 296 296 296 296 297 299 299
314 313 313 312 312 311 311 313 315 315 315 316 314 301 306 303 307 307 306 307 305 306 305 304 297 293 291 289 283 285 285 289 288 294 295 292 292 295 297 295 295 294 293 294 296
314 313 313 312 312 312 313 312 308 303 308 299 300 301 302 306 308 305 305 305 304 301 295 297 292 288 288 291 292 290 289 288 290 294 294 291 292 295 294 292 292 292 292 296 297
313 313 312 312 312 313 314 310 309 309 298 306 303 303 305 305 300 303 305 300 299 293 295 294 289 293 296 295 293 292 289 288 292 295 293 292 292 292 293 292 293 294 295 296 297
312 313 313 312 311 314 312 314 320 316 299 301 304 302 303 304 299 300 301 299 296 293 293 291 294 297 295 293 291 289 289 288 290 293 293 291 290 291 294 295 296 296 295 296 297
312 312 311 313 314 312 309 314 317 314 292 296 300 303 304 303 299 303 303 300 297 292 292 293 295 294 293 292 292 287 293 292 292 289 285 291 283 289 291 292 294 294 294 293 296
311 312 311 316 312 309 313 317 318 310 280 299 299 305 302 300 299 301 304 300 294 295 294 292 291 292 291 292 293 292 295 293 292 289 287 289 284 288 291 290 292 293 295 295 295
311 311 312 316 311 310 317 315 314 293 282 295 300 299 299 300 299 301 302 303 301 297 296 294 295 294 293 295 296 297 294 292 291 288 282 287 285 285 288 290 293 295 296 297 297
310 311 316 318 306 316 316 309 293 284 299 294 295 298 297 295 297 298 296 295 291 287 288 295 295 296 297 294 296 294 289 281 280 280 280 289 286 286 292 294 294 295 296 298 298
310 313 316 318 316 316 309 300 287 293 294 299 297 297 294 295 295 296 294 291 295 293 290 287 285 294 298 294 291 291 289 280 276 278 281 288 282 288 295 297 298 299 299 297 297
312 315 310 313 317 315 303 288 287 293 297 295 297 293 293 297 295 294 293 292 294 295 289 287 288 297 298 298 295 292 287 292 284 282 279 284 288 293 295 296 298 297 297 296 296
313 308 307 314 316 306 295 290 293 298 298 299 292 294 290 294 293 293 292 296 295 298 296 293 287 295 297 298 297 294 295 285 283 274 278 283 284 286 291 294 296 296 295 295 297
315 300 307 316 312 300 289 289 295 299 300 297 295 294 294 293 294 292 293 296 297 297 298 293 290 290 293 292 290 291 289 289 289 284 279 276 282 292 291 294 293 294 296 295 295
306 295 306 312 300 293 291 296 298 299 302 300 299 297 295 295 293 293 293 296 299 298 293 295 288 282 288 294 296 293 291 289 283 283 281 280 283 294 294 295 295 295 296 297 296
303 302 311 308 289 286 296 299 300 299 299 299 297 298 298 294 290 294 295 299 298 297 293 293 286 280 284 289 292 290 291 291 288 283 283 278 280 294 296 294 295 295 296 298 298
300 292 301 301 299 295 295 295 296 301 300 300 298 299 296 294 296 292 294 299 300 298 300 297 289 284 280 284 289 287 290 291 288 279 282 284 286 291 292 293 295 295 297 298 298
299 294 298 290 295 297 297 298 296 295 299 300 298 297 295 288 290 291 295 296 298 299 297 293 285 287 289 290 290 290 290 291 288 287 284 286 287 290 292 293 295 296 297 298 299
300 298 297 295 299 295 293 294 297 297 298 296 295 297 296 292 292 290 294 292 293 295 293 294 284 286 284 290 290 288 290 290 289 289 288 287 286 292 295 295 295 296 297 297 297
303 302 298 291 291 289 290 295 297 299 299 300 298 295 288 296 299 298 299 298 296 293 289 289 284 283 279 286 284 279 285 287 288 289 288 283 287 293 293 294 296 296 297 296 296

GFSSW_sfc_thetae_018.txt.gz
Theta_e
317 317 317 316 315 315 316 316 316 316 316 317 317 318 319 319 317 312 298 307 309 323 321 307 305 303 300 295 293 290 287 284 284 286 289 292 293 292 296 304 301 310 309 312 323
316 316 316 317 317 317 315 315 316 316 316 316 318 318 318 318 312 302 314 321 324 324 307 305 302 301 296 294 294 290 286 288 291 290 293 293 292 292 297 302 305 306 312 318 322
316 316 316 317 316 315 316 316 316 316 316 317 318 318 317 315 302 302 323 326 327 321 307 306 304 301 297 295 294 294 289 291 293 292 292 293 294 295 298 297 304 303 310 318 319
316 316 316 316 316 315 316 316 316 316 317 317 318 318 318 310 294 304 325 325 327 313 306 305 303 299 295 295 295 293 294 294 294 295 295 292 297 294 292 296 304 307 315 319 319
315 315 315 316 316 317 316 315 316 316 317 317 318 318 311 301 301 310 322 318 309 308 304 303 301 298 295 296 296 294 295 296 297 297 295 297 294 294 295 298 299 310 316 319 320
314 314 315 315 316 316 316 315 315 315 316 317 318 318 305 298 309 309 309 310 307 306 303 303 300 300 299 297 296 297 296 295 296 296 296 295 294 294 296 295 297 310 312 315 317
314 314 314 314 315 315 315 315 314 315 316 317 318 316 303 302 308 308 309 307 306 307 303 303 303 301 299 297 300 297 295 295 296 295 293 295 291 291 296 295 297 304 311 313 314
314 314 313 313 314 314 314 314 314 315 316 316 318 312 300 310 308 308 307 305 307 308 307 305 305 301 299 299 296 292 291 287 294 296 294 292 289 295 293 293 295 296 306 310 311
314 313 313 313 313 313 313 313 314 315 316 317 311 307 299 313 306 306 305 303 305 307 308 309 304 297 296 290 288 288 284 285 290 294 294 294 291 295 296 295 295 294 295 302 303
314 313 313 312 312 311 311 313 314 314 314 313 310 300 303 301 304 305 304 305 303 304 303 301 296 292 290 289 282 285 284 287 286 292 294 290 291 294 295 294 293 292 292 294 296
313 313 313 312 311 311 310 309 304 301 305 297 298 299 300 305 305 304 303 303 302 298 293 296 291 287 288 289 290 289 287 286 288 292 292 290 290 292 291 292 292 291 291 292 296
313 313 313 312 312 313 311 309 308 307 296 303 301 301 303 303 300 302 304 299 297 291 293 293 288 291 294 293 290 290 287 286 290 293 292 291 290 290 292 291 291 293 293 295 295
312 313 313 312 312 312 312 311 318 312 296 300 302 301 302 303 298 299 301 298 295 293 292 290 291 295 294 291 291 289 287 286 288 291 291 289 288 290 292 293 294 294 293 295 296
312 312 312 312 312 310 308 313 317 308 291 295 299 301 302 301 297 301 302 298 296 291 291 291 293 293 292 291 290 287 291 291 290 288 284 289 282 288 290 291 293 294 294 294 295
311 312 313 313 312 308 312 316 316 306 278 297 298 303 301 298 297 302 303 299 294 293 293 290 289 291 291 291 292 291 294 291 290 287 286 287 283 287 290 289 291 293 294 294 296
311 312 312 313 310 309 315 312 311 290 281 294 298 297 297 299 298 301 300 302 299 296 296 293 294 293 292 294 294 296 292 290 289 287 281 285 284 284 287 289 291 293 295 296 296
310 314 316 315 305 313 313 308 291 283 297 292 294 296 295 294 296 297 295 293 290 286 288 293 293 296 296 293 295 293 287 280 280 279 280 287 284 286 291 293 294 295 296 296 295
311 314 314 316 314 313 307 298 285 291 292 296 295 295 292 293 294 295 293 290 294 292 288 286 284 293 297 292 289 290 288 279 275 277 280 286 282 287 294 296 297 298 295 296 295
313 311 308 312 315 310 301 287 286 292 295 294 295 291 291 295 294 293 291 291 293 294 287 286 287 296 296 296 294 290 286 290 283 282 279 282 286 291 293 294 295 294 295 294 295
313 303 307 313 313 303 294 289 292 296 297 297 290 292 288 293 291 291 290 294 293 296 295 291 286 293 295 296 296 292 293 284 282 273 276 281 283 284 289 291 293 293 293 294 295
310 299 306 314 307 298 288 288 294 298 299 296 293 293 292 291 292 290 291 294 296 295 296 292 289 288 291 290 288 290 288 288 287 283 276 276 281 290 290 292 291 292 295 294 295
301 294 307 309 297 291 290 294 297 298 301 299 298 296 293 293 292 291 291 294 297 296 292 293 287 282 287 292 294 291 289 288 279 281 281 279 281 292 293 293 294 294 296 296 297
302 301 308 306 288 285 295 297 298 297 297 297 295 297 297 293 289 292 293 297 298 296 292 293 285 279 282 288 290 289 290 290 286 282 282 280 280 291 293 294 295 294 295 297 297
299 293 300 301 296 294 293 293 295 299 298 298 297 298 295 292 295 291 293 297 299 297 299 297 287 284 279 283 286 285 288 289 287 282 282 283 286 291 293 291 294 295 295 296 296
297 294 296 289 294 295 295 295 294 293 298 299 296 295 293 287 289 289 294 295 296 298 295 293 285 286 287 288 288 289 288 289 286 286 284 286 285 290 290 291 294 295 296 297 297
298 298 295 293 297 294 292 294 295 295 296 294 294 295 294 290 291 289 292 290 291 294 291 292 283 284 283 287 287 285 288 289 288 288 288 288 287 291 293 294 294 295 296 295 294
301 300 299 290 289 289 289 294 296 297 297 298 297 293 288 294 297 297 297 296 294 291 289 288 284 280 277 283 283 278 283 286 287 288 287 283 287 291 291 292 292 293 293 292 294

GFSSW_sfc_thetae_021.txt.gz
Theta_e
317 317 317 317 317 315 315 316 316 316 316 317 317 318 319 319 317 314 306 312 312 323 320 310 308 307 304 301 299 298 294 290 292 293 296 299 299 300 305 311 308 314 317 318 332
317 316 317 316 317 317 317 316 316 316 317 317 318 318 318 318 314 307 317 324 326 324 311 308 305 303 301 301 300 298 294 294 296 296 298 299 299 299 303 307 310 312 317 323 330
317 316 315 315 316 317 316 316 316 316 317 317 318 318 317 317 308 307 323 326 326 322 312 310 307 305 301 301 300 299 296 297 299 299 301 300 301 301 304 302 307 307 315 325 328
316 316 316 316 317 316 316 315 316 317 317 318 318 318 318 313 298 310 324 325 326 317 310 309 308 304 301 300 301 299 299 300 300 300 300 300 302 301 302 303 305 311 321 325 326
315 315 315 316 317 317 316 316 316 316 317 317 318 318 314 307 307 313 321 318 312 310 307 307 306 304 300 301 302 300 300 300 302 300 301 302 301 301 301 305 305 313 322 325 326
314 315 315 315 316 316 316 315 315 315 316 317 318 318 312 302 312 312 310 311 311 311 307 308 306 306 304 301 302 302 301 301 301 301 300 300 301 301 303 303 305 313 320 325 326
314 314 314 315 315 315 315 315 315 315 316 317 318 317 308 308 312 311 309 312 310 313 308 308 308 307 306 302 304 301 298 299 300 300 299 299 298 298 301 302 302 308 315 322 324
314 314 313 314 314 314 314 314 314 315 316 316 318 316 306 313 313 309 309 310 310 312 311 310 310 306 304 304 299 297 297 294 298 301 300 301 296 301 301 301 302 302 305 315 321
314 313 313 312 312 313 313 313 313 315 316 316 316 312 306 314 308 309 309 307 309 311 310 308 307 301 301 296 294 295 291 292 296 299 300 300 297 302 301 300 301 301 301 306 316
313 313 313 312 312 311 311 313 315 315 314 313 309 305 306 303 306 307 308 309 307 310 308 305 300 298 297 296 289 291 291 292 293 297 299 297 297 299 298 298 297 298 299 301 307
313 313 313 312 311 310 313 313 305 305 308 302 303 301 302 306 308 306 306 308 305 303 299 300 297 293 294 295 295 294 293 292 294 297 297 296 296 297 298 299 299 300 301 300 303
313 313 313 312 311 312 314 311 308 311 300 305 303 304 305 306 302 305 307 303 301 297 299 298 294 296 297 296 295 294 292 292 295 296 297 297 295 296 298 297 298 300 301 302 304
313 313 313 312 312 314 315 316 318 316 299 302 304 304 304 305 301 302 304 303 298 296 295 295 295 298 297 295 295 294 292 292 292 295 296 295 294 295 297 299 300 300 301 302 303
312 312 313 312 312 313 312 317 318 315 294 296 300 303 304 304 300 305 305 303 300 295 296 296 296 296 296 294 295 292 295 295 293 293 291 294 289 294 294 296 298 299 301 302 303
311 313 312 312 313 310 315 318 321 308 282 298 300 307 304 301 301 304 306 304 297 296 298 294 295 295 295 295 296 295 296 295 294 293 292 293 291 293 295 294 297 300 301 302 303
312 313 313 313 313 315 318 317 313 292 283 296 300 299 300 300 300 302 302 305 302 299 299 296 299 298 297 298 298 298 296 294 293 292 288 290 290 291 293 294 298 300 300 300 301
313 314 316 314 309 316 315 310 293 285 298 294 296 298 296 296 298 298 297 296 294 291 291 295 296 299 299 297 299 298 292 287 287 287 286 291 289 291 295 297 298 298 299 300 301
312 313 313 316 316 316 310 300 287 292 294 298 297 297 294 296 296 296 295 293 297 295 292 290 288 296 300 297 294 294 293 287 280 282 285 289 287 291 297 299 299 299 300 301 301
313 310 311 314 316 311 304 290 289 293 297 296 297 294 294 297 296 295 294 293 296 297 291 290 290 298 299 299 297 294 291 294 287 285 285 288 291 296 296 297 298 299 300 300 301
310 307 309 313 314 306 297 291 295 298 299 299 293 295 292 294 294 294 293 297 296 298 299 294 289 295 297 299 298 296 297 290 289 282 280 286 287 290 293 295 296 298 299 301 301
306 304 309 315 309 300 292 291 296 300 301 298 296 295 295 295 294 293 293 297 298 298 299 295 293 292 294 294 292 294 292 291 291 288 283 280 286 295 295 296 297 298 299 300 302
301 300 311 312 298 293 293 296 298 300 302 300 300 298 296 296 294 294 294 296 299 300 295 296 291 287 290 295 297 295 292 291 286 284 286 286 285 296 297 297 298 298 299 301 302
303 304 309 308 292 289 298 299 299 299 299 299 298 299 299 295 292 296 296 300 300 300 296 296 290 284 285 291 294 293 293 292 290 287 285 283 285 295 296 296 298 299 301 302 302
301 296 302 301 298 296 296 296 297 300 299 299 298 300 297 294 297 295 296 300 301 300 299 299 290 287 283 286 290 288 291 291 291 286 286 287 289 294 296 296 297 299 300 301 301
299 297 299 292 296 297 298 297 296 295 300 300 298 297 296 290 293 294 297 297 298 299 298 297 289 289 290 291 290 290 290 291 289 290 286 289 290 293 296 296 298 299 299 300 300
300 299 297 295 298 297 294 296 296 297 298 297 296 298 297 293 294 292 296 296 295 298 296 295 289 289 286 289 289 287 290 290 290 291 290 291 290 297 297 299 297 298 298 298 297
302 302 301 291 291 292 292 297 297 299 299 300 298 296 292 298 300 301 300 298 298 296 293 292 289 285 283 285 285 283 286 288 290 291 292 287 292 295 296 295 296 297 297 295 295

GFSSW_sfc_thetae_024.txt.gz
Theta_e
319 317 316 317 318 318 316 316 317 317 317 318 318 318 319 319 318 319 312 316 317 324 322 314 314 313 310 308 308 308 302 298 298 299 300 305 303 306 313 312 314 316 318 324 332
318 318 317 317 316 317 317 317 317 316 317 317 318 318 319 318 319 313 320 326 328 326 315 312 309 309 309 307 309 308 302 299 302 303 303 304 304 305 307 307 309 315 321 328 334
317 317 317 316 316 316 318 317 317 316 317 318 318 319 318 320 313 312 325 327 327 324 316 314 313 311 307 309 307 306 301 303 303 305 306 304 304 306 305 303 307 307 316 327 331
316 317 316 316 316 317 317 316 316 317 317 318 318 319 318 320 301 316 324 325 327 320 315 315 312 308 306 304 307 302 304 304 304 305 305 304 306 304 306 307 310 313 319 325 327
315 315 316 317 317 317 317 316 316 317 317 317 318 319 321 312 310 318 323 322 319 317 314 313 310 308 304 306 307 305 306 307 306 306 306 306 305 305 306 309 310 315 321 322 324
315 315 316 316 317 317 317 316 315 316 316 317 318 317 317 306 317 319 316 317 318 317 315 314 311 312 308 307 306 307 307 306 307 306 306 304 305 306 307 309 309 313 317 322 323
315 315 315 315 316 316 316 315 315 315 316 317 318 322 313 309 318 318 315 315 317 317 314 314 315 311 312 308 309 307 304 306 306 306 306 306 303 303 308 308 307 311 315 320 322
315 314 314 314 315 315 315 315 315 315 316 317 318 321 309 317 320 315 316 315 317 318 317 316 316 312 310 309 306 304 304 299 304 306 306 307 301 306 309 307 308 309 310 317 322
314 314 313 313 313 313 313 313 314 315 317 317 322 316 306 318 312 315 315 312 315 316 316 313 313 309 307 304 301 301 297 296 299 305 305 304 301 307 307 305 307 309 311 311 316
314 314 313 313 313 312 312 313 315 316 318 319 314 309 310 307 312 312 314 313 312 313 312 311 311 306 306 302 295 295 296 297 297 302 304 302 302 304 306 306 306 307 308 309 311
314 314 313 312 312 311 314 322 314 312 313 307 307 306 307 312 313 312 312 311 311 310 305 306 305 300 301 302 301 299 297 297 299 302 302 301 300 302 305 307 307 308 308 309 311
314 314 314 313 312 312 324 317 315 316 305 309 308 308 309 311 307 311 315 308 307 303 305 303 299 301 302 301 300 299 297 297 300 301 302 301 300 302 304 304 306 307 308 310 311
313 314 314 313 313 321 326 321 326 323 306 306 308 308 308 312 307 308 311 307 305 301 302 300 299 301 300 301 299 299 297 297 297 301 302 301 299 300 302 305 306 307 309 309 309
313 314 314 312 316 322 319 323 329 321 302 300 304 307 309 309 305 311 311 307 304 300 302 300 301 301 301 299 300 296 300 300 299 298 295 301 294 297 300 302 304 307 309 310 310
313 314 312 312 324 318 321 328 331 322 290 302 304 312 310 305 305 308 312 309 301 300 302 297 299 300 299 298 301 299 302 300 299 299 298 298 296 297 300 299 302 305 307 308 309
313 314 314 322 328 323 328 328 326 302 288 299 304 303 304 306 305 308 308 310 307 304 304 301 304 303 302 302 302 303 301 300 301 300 293 296 296 296 298 299 302 305 306 307 309
313 314 320 324 320 328 329 323 301 294 301 297 299 303 302 301 302 304 303 302 300 296 297 299 300 304 305 301 303 303 299 294 291 292 291 296 294 297 299 301 303 303 305 307 309
312 315 317 324 330 328 325 311 292 296 298 301 301 302 299 301 301 302 301 299 303 301 298 295 293 300 304 301 298 299 298 293 284 287 291 295 291 296 301 303 304 305 305 307 308
312 324 325 326 328 326 314 301 298 299 301 300 301 298 298 300 301 301 300 299 301 302 296 295 293 302 302 303 302 299 297 299 292 291 290 294 296 300 301 301 302 303 304 305 307
321 321 321 326 325 322 311 297 299 302 303 302 297 299 296 299 298 299 298 300 299 303 304 299 293 299 300 303 303 301 301 295 297 287 283 290 292 294 297 300 301 302 303 305 306
321 312 321 326 322 315 304 300 300 304 305 302 300 298 299 298 299 298 297 300 302 302 304 300 297 295 298 297 297 299 298 297 297 294 288 285 290 301 300 302 300 302 303 305 306
318 307 322 325 309 307 303 302 301 304 306 305 305 303 301 300 299 298 298 300 303 304 298 301 298 292 292 299 301 300 297 296 292 288 292 290 289 301 301 302 302 302 303 306 306
316 315 321 320 305 304 303 302 304 304 303 303 302 304 304 300 297 300 300 303 304 303 300 301 296 289 290 296 299 297 298 297 295 294 289 287 290 300 302 302 303 303 304 304 305
315 309 313 314 309 306 303 302 301 305 303 305 303 305 303 300 302 299 300 303 304 303 299 303 297 291 287 290 294 291 294 295 295 290 289 291 293 297 300 300 302 303 304 304 304
313 309 309 306 305 306 306 303 301 300 305 305 302 303 301 298 299 298 301 301 302 300 303 302 293 295 295 295 295 294 293 294 293 294 289 292 293 297 299 300 302 302 303 303 303
311 310 309 306 306 306 301 303 302 301 303 301 301 302 302 299 298 297 300 300 298 302 301 301 294 293 291 294 294 292 294 294 294 295 295 295 294 301 301 302 301 301 302 301 302
314 311 315 298 303 305 303 303 302 305 304 305 305 303 300 302 305 306 306 305 303 300 299 298 296 291 288 291 290 288 292 293 294 296 295 291 296 300 299 300 301 301 302 301 300

GFSSW_sfc_thetae_027.txt.gz
Theta_e
320 319 318 317 317 318 318 318 317 317 317 318 318 319 320 320 318 322 314 316 319 325 320 319 317 316 314 311 312 312 303 300 301 301 301 306 305 308 312 310 312 314 319 323 331
319 319 319 318 317 317 318 318 318 318 317 318 318 319 319 319 322 315 320 328 329 328 318 315 312 312 311 310 310 308 304 302 305 305 304 305 306 306 308 307 309 313 318 327 329
319 318 318 318 318 318 317 318 318 317 317 318 319 319 319 320 318 314 326 327 328 326 320 316 314 312 308 310 308 307 303 304 304 306 307 305 305 307 306 305 309 310 314 323 326
318 317 318 317 317 318 317 317 317 317 318 318 319 319 319 324 303 317 326 327 329 324 318 315 313 309 307 305 308 303 305 305 305 306 306 305 307 305 307 308 312 314 318 321 322
317 316 317 317 318 317 317 317 316 317 318 318 319 320 322 316 311 320 324 326 322 320 316 313 310 309 304 306 307 304 305 306 307 307 308 308 306 305 307 311 312 314 318 320 322
316 316 316 316 317 318 318 316 316 316 317 318 319 318 321 308 319 320 319 319 320 318 315 314 311 312 308 307 307 308 308 308 308 308 308 306 306 308 309 311 311 313 316 319 320
316 316 316 316 317 317 317 316 316 316 317 318 319 323 318 311 319 320 318 318 320 319 313 316 315 311 312 308 311 309 305 307 308 309 308 309 304 305 310 311 310 312 314 318 319
315 315 315 315 316 315 316 315 315 316 317 318 319 324 311 318 322 317 318 317 320 320 318 318 318 314 312 313 308 306 306 302 306 307 308 308 302 307 311 310 310 311 314 316 319
315 315 315 314 314 314 314 314 315 316 317 318 323 323 308 317 314 316 318 314 317 319 318 316 317 311 311 306 303 304 299 299 302 307 306 306 303 309 310 310 309 311 312 313 317
314 314 314 314 314 313 313 314 316 316 318 322 319 311 311 308 313 315 318 317 316 316 313 313 312 308 307 304 297 298 298 299 299 304 304 303 304 307 309 309 309 311 312 313 313
314 315 315 314 314 313 314 321 315 315 316 310 309 308 309 313 316 314 316 315 315 313 307 309 305 303 303 304 303 301 299 298 302 304 303 303 303 305 308 309 309 310 311 312 315
314 315 315 314 313 313 322 319 319 319 306 311 311 311 313 314 308 312 317 310 310 305 307 304 302 304 304 303 301 301 300 300 302 304 303 303 302 305 307 307 309 310 310 311 312
314 315 315 314 313 320 326 323 329 325 307 307 310 309 310 313 308 309 314 310 306 303 303 303 303 304 303 302 301 302 300 300 299 303 304 303 301 302 305 307 309 310 310 311 311
314 315 315 312 316 328 322 327 332 328 304 301 306 308 311 311 306 313 314 310 306 302 303 302 304 302 302 300 303 299 302 302 301 300 297 304 295 301 303 304 307 309 311 311 311
314 315 313 313 326 319 324 331 335 329 292 303 306 315 311 308 308 309 315 310 303 303 304 300 301 301 301 301 304 301 305 303 302 301 300 300 296 300 303 301 304 307 309 311 312
315 316 315 322 332 326 331 333 332 306 291 300 306 305 306 308 307 310 309 313 311 304 305 303 307 306 304 305 304 306 304 304 303 302 294 298 298 297 300 303 304 306 308 310 311
314 315 321 330 321 332 335 325 301 296 303 299 302 305 304 304 305 306 305 305 304 299 299 302 302 306 307 303 306 305 302 295 293 293 292 300 296 299 303 305 306 305 307 309 311
314 318 322 330 333 333 327 309 296 300 300 304 304 304 301 304 303 304 304 302 305 303 302 298 295 302 305 302 300 301 300 295 286 289 293 298 292 299 305 306 307 307 308 309 309
313 330 329 332 335 332 314 301 300 300 303 302 303 300 300 302 303 303 303 301 303 305 300 298 296 304 304 306 305 301 299 302 295 296 291 294 299 303 304 304 305 306 307 307 308
322 321 322 333 334 326 310 300 303 305 305 305 299 302 298 301 301 301 301 303 302 304 307 300 296 302 302 305 305 302 304 296 299 286 285 292 293 295 299 302 304 305 306 307 308
322 312 326 334 329 312 304 303 303 307 307 304 302 300 302 300 302 300 300 302 304 303 305 302 299 298 300 299 297 300 300 299 298 295 288 286 291 302 301 303 304 304 305 307 308
321 308 328 331 308 310 306 305 303 306 309 307 307 305 303 303 301 301 300 303 306 305 300 302 299 294 295 301 303 302 299 299 293 290 294 292 290 303 303 304 304 304 306 307 308
315 315 327 326 306 305 307 305 307 306 306 306 304 306 307 304 299 302 303 306 306 305 303 303 299 292 294 298 302 298 299 299 297 295 289 288 291 302 304 303 305 304 306 307 307
317 310 315 317 316 308 305 305 303 308 306 308 306 308 306 303 305 302 302 305 307 306 301 303 299 294 290 293 297 294 296 297 296 291 291 292 294 299 301 301 303 304 306 306 306
318 313 314 307 309 309 309 307 304 302 307 308 305 305 304 300 302 301 304 304 305 300 304 304 295 297 297 297 297 296 295 296 294 295 291 294 295 298 301 302 303 304 305 305 305
314 313 316 314 311 309 303 305 304 304 305 303 304 306 305 302 301 300 302 301 301 304 303 303 296 296 293 296 296 293 295 296 296 296 296 295 294 301 303 304 303 304 303 303 302
321 320 318 303 310 307 306 306 305 307 307 307 308 305 303 304 308 309 309 307 305 302 301 300 298 293 290 294 293 290 294 295 296 297 296 292 297 302 301 301 302 301 301 302 301

GFSSW_sfc_thetae_030.txt.gz
Theta_e
321 320 320 320 317 317 317 319 319 318 318 319 318 319 320 320 318 321 314 317 319 324 321 316 317 315 315 310 311 311 304 301 301 302 301 306 305 308 312 308 311 317 316 325 328
320 320 320 320 319 318 318 318 318 318 318 318 319 320 320 319 320 317 321 328 328 328 316 314 311 313 308 310 309 306 302 300 304 305 302 304 304 306 308 306 308 313 323 327 327
320 320 319 319 319 318 318 318 318 318 318 318 319 320 319 319 317 313 325 327 329 327 321 319 314 311 307 309 308 306 301 304 304 305 306 304 304 308 306 304 309 308 318 323 324
318 319 318 318 319 318 318 317 318 318 318 318 319 320 319 321 303 316 326 326 330 322 320 314 311 308 306 304 308 302 304 304 305 306 305 303 305 304 306 307 311 313 316 321 321
317 317 317 318 318 319 317 317 317 317 317 318 319 320 321 316 312 319 326 328 321 320 317 314 310 309 304 305 306 303 303 305 306 306 307 307 305 305 306 309 312 315 316 319 319
317 317 317 317 318 318 318 317 317 317 317 318 318 319 319 308 318 320 319 319 319 318 314 314 311 311 307 306 305 306 306 306 307 307 307 304 305 306 307 310 310 312 315 318 320
317 317 316 316 317 317 317 316 316 316 317 318 318 320 318 312 319 320 318 317 319 318 314 316 315 310 311 307 310 308 304 306 306 307 306 307 303 303 309 310 309 310 312 316 318
317 316 315 316 316 316 316 315 316 316 317 318 318 322 313 319 320 317 318 316 318 319 317 317 317 314 312 311 307 303 305 300 305 307 308 306 300 305 310 309 308 309 312 314 318
316 316 315 315 315 315 315 315 315 316 317 318 320 321 311 317 314 316 317 314 316 317 318 316 316 310 310 304 301 303 298 300 302 307 306 305 302 307 311 309 308 309 311 313 315
316 315 315 315 314 314 314 314 315 316 318 322 322 313 312 308 313 314 317 317 314 315 312 311 311 306 306 303 295 297 297 299 299 303 303 302 302 306 309 308 309 310 312 311 313
315 315 315 315 315 314 313 318 314 314 317 310 309 309 308 312 314 313 316 314 315 312 306 309 303 301 302 303 302 301 299 298 301 304 301 301 302 304 307 308 309 309 311 312 313
315 317 315 314 314 314 318 318 319 319 307 311 311 311 312 314 308 311 316 310 308 304 308 303 300 304 305 304 301 300 299 299 302 304 302 303 302 304 306 307 309 309 310 310 311
315 316 316 314 314 317 323 323 328 328 306 307 311 309 310 313 308 308 313 311 306 304 303 301 303 304 303 302 301 301 299 300 299 303 304 301 300 301 305 307 308 309 310 311 311
315 316 315 313 316 327 322 326 331 332 301 300 305 308 311 311 306 313 313 310 306 302 303 303 304 302 302 301 302 298 304 302 300 299 294 303 292 299 302 303 306 308 310 309 310
316 317 314 312 323 319 324 329 333 328 292 304 305 314 311 308 308 308 313 310 303 303 304 300 301 301 301 302 303 301 304 302 301 299 298 298 295 299 302 300 304 307 308 310 312
316 317 314 319 331 327 331 333 330 304 292 300 306 306 305 307 307 309 308 312 311 303 305 303 307 306 304 305 305 305 303 303 303 300 293 298 296 295 298 301 304 306 308 309 310
316 316 317 330 323 333 336 325 299 296 304 299 301 305 305 303 305 306 305 305 303 298 298 302 302 306 306 302 306 304 300 294 293 293 292 300 296 298 303 306 306 306 307 309 311
317 316 325 331 332 335 328 309 295 300 300 305 304 304 301 304 303 304 304 301 305 304 300 297 294 302 305 302 300 301 299 296 286 288 292 299 292 297 305 306 307 308 308 309 310
313 333 331 334 336 335 316 300 300 300 304 302 303 300 300 303 303 303 303 301 302 305 299 297 297 304 304 305 304 300 298 301 294 298 292 293 298 303 304 304 305 306 307 307 308
322 322 322 334 337 328 311 300 304 306 305 305 298 302 298 300 300 302 301 304 302 304 306 300 296 302 302 304 306 301 302 295 299 286 285 290 292 294 299 301 304 304 306 307 309
328 311 327 334 332 313 303 305 305 307 308 304 302 300 302 300 302 301 301 303 305 303 305 302 300 298 300 299 296 299 298 298 297 295 288 286 290 300 300 303 303 305 306 307 308
328 306 330 334 307 308 305 306 302 306 309 307 307 304 303 303 301 301 301 304 306 306 300 301 300 295 295 301 303 301 298 298 294 290 294 292 290 303 302 304 304 304 305 307 308
312 315 328 328 304 306 308 306 307 305 306 306 305 307 308 304 300 303 303 306 306 306 302 303 299 293 294 298 302 297 298 298 297 296 289 287 289 302 303 303 304 304 305 306 308
319 310 312 316 317 308 305 304 304 310 308 308 307 308 306 304 305 302 302 305 307 305 302 304 299 294 291 293 296 293 295 297 296 291 291 291 293 298 300 301 302 303 305 305 306
319 311 312 306 308 309 307 306 304 302 308 309 305 305 304 301 302 301 304 304 305 301 304 304 296 298 297 297 296 294 294 294 293 294 289 293 293 297 300 301 302 303 304 303 303
314 312 315 313 311 309 304 305 304 305 306 304 304 306 306 302 302 301 303 302 301 304 303 304 297 297 293 296 295 292 293 295 295 295 295 295 294 301 303 303 302 302 302 302 302
321 322 319 305 310 308 307 306 306 308 308 309 307 306 303 305 308 308 308 306 305 303 301 301 299 294 290 294 292 289 294 295 295 297 296 292 297 301 299 300 301 301 301 300 299

GFSSW_sfc_thetae_033.txt.gz
Theta_e
321 321 321 321 320 319 318 318 318 318 318 318 319 319 320 319 318 317 309 315 315 322 320 312 312 312 310 306 307 303 293 293 296 296 296 300 299 303 305 306 313 314 318 322 323
319 319 320 321 320 319 318 318 317 318 319 319 319 319 319 318 317 315 322 324 326 327 312 310 309 310 304 303 303 298 293 294 299 298 296 296 299 301 301 303 310 317 322 323 322
318 318 319 320 320 319 319 318 318 318 318 319 318 319 318 317 315 312 324 328 327 327 315 315 313 309 303 301 300 297 294 298 299 300 300 298 299 303 300 299 308 314 317 319 318
317 317 319 319 319 319 318 317 317 318 319 318 319 319 318 316 302 308 326 329 328 321 316 314 310 302 299 298 300 296 299 300 300 301 300 298 298 299 300 302 309 319 319 318 317
315 316 318 318 318 318 318 317 317 317 318 318 319 319 316 314 311 315 327 327 321 316 314 313 306 302 299 300 300 297 298 300 301 302 302 302 299 300 300 304 309 317 319 318 318
317 317 317 317 317 318 317 317 316 317 317 318 318 318 315 306 316 315 314 314 315 315 313 312 308 307 303 301 298 300 300 299 299 301 301 300 300 300 299 304 308 311 314 314 316
317 316 316 317 317 316 317 317 316 316 317 318 319 318 316 313 313 312 314 312 313 313 310 310 310 307 305 303 304 303 298 300 300 301 299 300 296 298 302 303 305 307 311 312 315
317 316 315 315 315 315 315 315 315 316 317 317 318 316 311 319 311 314 312 311 314 315 314 313 312 309 306 304 303 299 297 293 299 302 302 300 293 299 302 303 302 303 305 308 313
316 316 315 314 314 314 314 314 314 316 317 317 314 315 309 316 310 311 310 312 313 314 313 314 309 305 304 296 293 295 290 294 296 302 301 298 295 299 302 304 301 301 302 304 308
315 315 314 314 313 313 313 314 315 315 316 318 318 309 314 307 310 310 310 315 311 312 310 308 303 298 297 294 289 291 292 296 294 296 297 294 295 299 302 302 300 302 304 309 309
315 315 314 314 313 313 310 310 308 309 313 307 306 309 307 309 311 308 312 312 310 307 300 303 297 293 294 296 297 296 294 293 294 298 295 294 295 298 300 301 303 304 306 307 308
315 315 314 314 313 313 310 313 314 313 303 313 310 310 311 310 305 308 312 306 305 300 303 299 294 299 301 300 298 297 295 295 296 300 296 294 293 298 301 301 302 303 304 305 307
315 315 314 313 313 310 314 318 323 323 301 305 310 307 310 311 306 304 309 307 302 300 300 296 298 303 301 300 298 298 296 295 295 298 297 294 292 296 300 303 304 304 304 306 307
315 315 313 312 311 319 315 321 325 324 294 299 304 306 309 309 304 309 309 306 303 299 299 298 302 301 299 299 299 295 301 300 297 294 288 295 284 292 297 299 302 303 301 303 306
314 315 312 314 312 317 320 324 323 317 282 301 304 309 307 306 304 305 307 306 301 300 300 297 298 299 299 299 301 298 301 299 298 293 291 293 288 291 298 298 300 301 303 303 304
315 315 313 314 314 323 327 327 317 297 284 300 304 303 301 305 306 305 305 308 307 301 300 298 303 301 300 303 302 303 299 299 298 294 285 294 291 288 294 298 300 302 303 304 304
314 314 314 323 317 325 327 316 293 290 302 297 299 303 302 301 302 303 301 300 297 292 293 298 299 302 304 298 302 300 294 286 285 284 284 297 294 296 299 302 302 302 303 303 304
315 313 321 329 329 328 320 304 289 298 298 302 301 302 299 301 301 302 300 296 300 301 296 293 290 298 303 299 296 297 295 284 281 281 285 294 289 292 300 303 304 305 304 304 304
313 323 323 326 329 324 309 294 295 299 302 300 301 298 297 302 301 301 298 297 298 299 294 294 293 300 301 301 300 295 292 296 289 289 284 289 293 298 300 302 304 304 304 302 303
316 316 317 326 326 319 303 297 301 304 304 303 296 299 295 297 298 298 298 301 300 301 301 297 292 299 300 301 303 299 298 289 290 280 280 286 289 291 295 298 301 301 301 305 304
317 306 320 328 322 307 295 299 303 306 307 303 300 299 300 297 299 298 298 301 303 301 300 297 295 294 297 294 293 295 294 294 293 288 280 278 284 295 297 300 299 301 303 302 301
314 299 322 324 300 301 296 304 302 304 308 307 305 302 301 300 299 298 298 300 304 303 297 297 295 287 292 298 300 297 295 295 283 285 285 282 283 297 298 300 301 300 303 303 303
307 309 321 321 292 295 302 305 306 303 304 304 303 305 305 301 296 301 300 305 305 302 298 298 292 283 289 294 298 293 295 295 294 287 283 277 282 298 302 300 302 301 300 301 302
311 298 308 310 309 303 301 301 302 307 306 306 304 305 303 300 302 299 299 305 305 302 301 301 295 289 283 288 292 289 292 292 291 281 283 285 289 294 297 298 299 299 299 300 301
313 304 304 295 299 303 303 303 302 301 306 306 303 303 301 294 298 298 301 301 304 301 301 299 290 294 294 294 293 291 291 290 288 289 283 287 290 294 297 296 298 300 300 300 300
311 308 306 301 302 302 300 300 302 303 303 302 301 303 303 298 299 297 300 299 298 300 299 300 289 289 286 294 293 289 291 292 292 292 291 291 290 297 298 299 298 298 298 297 297
313 315 311 301 300 300 300 303 304 305 305 307 304 301 297 301 302 302 302 301 302 298 296 296 288 284 281 289 286 281 289 291 292 293 292 286 292 296 296 295 295 295 296 295 294

GFSSW_sfc_thetae_036.txt.gz
Theta_e
320 320 320 321 320 320 320 318 317 318 318 318 318 319 319 319 317 316 308 311 316 324 318 310 310 310 309 304 304 301 292 289 292 296 299 300 301 303 308 312 314 314 319 320 317
319 318 318 318 319 320 319 319 317 318 318 318 319 319 319 318 315 313 320 325 325 324 310 307 306 308 303 302 302 297 291 293 298 300 296 297 300 301 307 313 313 315 320 320 316
319 318 318 317 318 320 319 318 317 318 318 318 318 318 318 317 313 312 325 326 326 325 312 312 311 308 302 301 299 296 292 296 298 298 299 299 300 301 304 306 315 314 316 316 314
318 317 316 316 318 319 318 317 317 318 317 318 318 319 318 315 299 308 324 327 328 321 313 312 310 305 298 296 298 294 297 299 298 298 298 298 298 299 300 306 319 319 319 316 313
316 315 315 316 318 318 317 317 317 317 317 317 318 318 315 311 309 316 328 327 322 315 311 311 307 302 297 297 296 296 297 298 300 300 297 299 297 299 300 309 320 320 319 317 315
317 316 316 317 317 317 317 316 316 316 316 317 318 318 312 303 316 312 314 320 314 311 310 310 308 306 302 300 296 298 297 298 298 298 299 299 298 298 298 311 316 318 316 317 316
317 316 316 316 316 316 316 315 315 315 316 317 318 316 314 310 318 314 311 309 310 311 308 309 308 306 304 299 301 299 295 297 297 297 296 299 295 295 299 312 315 316 316 316 317
317 316 315 315 315 315 315 314 314 315 316 317 318 315 306 319 311 311 309 309 311 312 312 310 309 307 303 303 301 297 295 291 297 299 300 298 291 296 299 303 307 311 313 313 312
316 315 314 314 313 313 313 313 314 315 316 316 312 312 302 318 308 310 308 310 311 311 310 311 307 302 302 295 292 293 288 291 295 300 298 296 293 298 298 300 299 299 306 308 309
315 314 314 313 313 312 312 313 314 314 314 316 316 307 311 310 307 308 309 312 309 308 306 305 300 297 295 292 287 290 289 293 292 295 296 294 294 296 298 301 302 304 305 307 308
314 314 314 313 312 312 309 307 305 306 309 302 305 308 307 308 309 306 308 309 308 305 297 302 296 292 293 295 296 294 292 292 292 296 294 292 293 295 299 302 302 303 304 305 306
314 314 313 313 312 312 308 310 310 311 301 310 311 309 312 307 303 306 310 303 303 298 301 296 292 297 299 299 298 296 294 292 295 298 294 292 292 296 298 300 303 303 304 305 306
313 314 313 312 312 309 308 314 319 319 304 303 308 305 307 309 304 302 307 305 301 298 298 294 297 300 300 298 297 296 293 293 293 295 295 293 291 295 299 300 303 304 305 306 306
313 313 312 311 308 312 308 315 318 316 292 298 302 304 307 307 302 306 306 304 302 297 297 296 300 299 299 297 297 293 299 297 295 291 286 293 283 291 294 297 300 302 303 304 306
313 313 311 312 309 315 318 324 320 313 280 299 301 307 304 304 303 302 305 305 298 298 297 294 297 298 297 297 298 296 299 296 296 291 289 291 286 288 297 295 297 298 301 303 304
313 313 311 312 311 319 324 322 309 295 282 297 302 301 299 302 302 302 302 305 305 299 298 297 301 299 298 300 300 301 298 297 295 292 284 291 289 285 291 296 298 300 301 302 303
313 312 312 321 315 322 322 307 291 288 299 295 296 299 299 298 300 300 299 297 295 290 291 296 297 300 301 297 299 298 292 284 283 283 282 294 292 291 298 301 300 300 300 301 303
312 312 316 325 325 322 313 299 288 296 296 300 300 300 297 299 299 300 297 294 298 299 292 290 288 296 300 297 293 294 293 283 281 280 283 293 287 290 298 302 302 303 302 303 303
311 317 320 322 324 318 304 292 292 297 300 298 299 296 296 299 298 298 295 295 296 297 293 291 291 298 299 299 298 293 290 294 287 285 282 287 290 296 299 302 303 303 306 305 304
313 313 313 323 321 311 301 295 299 302 302 300 294 297 292 296 296 296 296 299 297 299 299 296 290 297 298 299 300 296 296 288 287 279 279 284 287 289 294 297 299 299 300 302 305
313 302 312 323 313 302 293 296 301 305 306 301 298 296 297 295 296 296 296 299 300 300 298 296 293 292 297 292 291 293 291 291 290 286 280 277 282 294 295 297 297 300 303 303 301
308 297 316 312 294 297 293 301 302 302 305 303 303 302 298 297 297 297 296 298 303 302 294 296 292 285 290 295 297 295 293 292 282 283 283 281 282 298 298 300 300 300 301 300 300
304 307 317 308 287 291 298 303 303 301 301 301 301 303 302 298 295 298 298 303 302 300 296 296 290 282 287 293 296 292 293 293 291 285 283 276 281 295 298 296 297 297 299 299 300
307 296 303 307 302 297 297 299 300 305 303 304 302 303 300 298 301 297 297 302 302 299 299 300 293 287 283 287 290 286 289 290 289 280 282 283 287 292 295 295 296 297 298 298 298
308 299 299 291 295 301 300 301 299 299 304 304 300 301 299 293 296 296 299 299 301 300 299 297 288 291 291 291 291 289 288 288 286 286 282 285 287 291 294 294 295 297 298 297 296
306 304 302 296 298 299 298 299 300 301 301 300 298 301 300 296 297 295 298 296 295 297 296 297 287 287 284 291 290 286 288 290 290 289 289 289 289 295 296 296 296 296 296 294 294
314 314 305 298 295 297 297 299 301 303 303 305 302 298 294 299 299 299 299 300 300 296 295 293 286 282 279 286 284 280 287 289 290 291 290 285 290 294 293 294 293 293 293 293 292

GFSSW_sfc_thetae_042.txt.gz
Theta_e
320 320 321 318 318 317 317 316 318 318 318 318 318 318 318 318 317 313 306 309 313 323 319 307 305 304 304 301 300 297 291 293 296 301 301 305 310 308 315 315 315 315 317 321 324
320 320 319 320 318 317 316 316 318 318 318 317 317 317 318 317 311 309 317 323 324 324 306 304 301 303 299 300 300 294 289 293 304 305 305 307 302 308 312 312 312 310 318 322 321
320 320 320 319 318 316 316 315 317 318 318 317 317 318 317 315 307 305 323 325 326 320 308 306 305 303 298 299 297 295 292 295 302 309 309 305 304 306 311 307 312 310 315 317 317
319 319 318 319 317 315 315 315 317 317 317 317 317 318 317 311 294 304 329 328 326 310 308 304 305 301 299 297 298 294 297 297 302 309 305 298 300 308 304 309 316 315 317 316 314
317 317 317 318 316 315 314 316 316 317 317 317 317 318 310 306 305 315 328 327 315 309 305 306 304 303 297 297 296 294 296 297 298 300 298 299 296 306 299 314 315 314 316 314 313
317 317 317 317 317 317 316 316 315 315 316 317 317 317 307 298 309 316 317 313 311 308 306 306 305 305 300 297 295 297 295 296 296 295 296 297 296 297 301 314 312 312 312 313 312
317 316 316 316 316 316 316 315 314 314 315 316 317 314 309 305 311 312 311 312 311 309 305 308 308 304 302 297 298 296 294 296 295 294 295 296 292 292 304 314 312 310 310 309 310
317 316 315 315 315 315 315 314 314 314 315 316 317 311 305 313 312 313 309 307 309 310 308 307 308 305 300 298 298 295 292 288 293 296 295 294 288 293 309 312 309 310 311 308 309
316 315 314 313 313 313 313 313 313 314 315 316 308 308 302 313 309 309 306 304 308 307 307 309 305 299 297 293 290 291 287 288 291 295 295 293 290 293 306 309 303 303 305 306 306
315 315 314 313 313 312 311 312 314 313 312 314 313 303 306 303 308 305 304 307 305 305 303 302 298 294 292 290 285 286 287 289 289 292 294 291 289 295 298 301 300 301 303 304 304
315 314 314 313 312 311 308 304 302 301 306 301 302 301 305 309 305 301 304 305 304 302 296 298 294 290 289 291 292 291 289 288 289 292 292 289 291 294 298 299 299 300 301 303 304
314 313 313 313 312 311 305 302 303 305 300 307 307 307 309 308 301 302 307 301 300 294 297 295 290 293 296 295 294 292 289 288 291 294 292 291 291 294 297 298 299 299 300 301 302
313 313 313 312 312 308 304 307 315 312 302 303 306 304 303 306 300 299 303 300 297 294 293 292 293 297 297 295 294 293 290 289 290 291 292 291 288 292 297 300 301 301 301 302 302
312 312 311 311 305 305 303 309 317 310 290 294 299 302 303 303 298 302 303 301 298 294 294 293 298 296 294 294 294 290 294 293 291 288 285 289 283 288 293 296 298 300 299 300 302
312 312 311 311 305 309 310 321 318 305 279 296 298 303 301 300 299 299 303 301 294 294 294 291 293 294 293 293 295 293 296 293 292 288 287 288 284 286 293 293 295 297 299 300 302
312 312 310 308 306 311 319 311 305 291 282 293 298 297 297 298 297 298 301 304 300 296 296 294 297 296 294 296 296 297 295 293 291 289 283 287 287 284 288 292 295 298 300 302 302
311 311 309 312 312 318 314 301 289 284 296 291 293 296 296 294 296 296 296 294 291 289 289 294 294 296 297 294 295 294 290 282 282 282 281 289 287 288 292 296 298 298 300 301 302
311 310 309 312 320 316 304 294 283 291 293 295 294 295 293 295 295 296 294 292 295 292 289 287 286 293 297 293 291 291 290 282 281 280 282 289 284 289 295 297 300 301 301 301 301
310 307 312 318 317 309 298 286 287 294 296 295 295 292 291 295 295 294 291 291 292 293 290 288 288 294 295 296 294 291 287 290 285 283 280 283 288 293 295 296 298 299 300 299 300
309 311 311 317 314 305 294 289 294 300 298 296 290 293 289 292 292 292 292 295 293 295 296 293 287 293 294 295 295 291 294 286 284 277 277 281 283 285 291 293 296 296 297 299 300
306 301 307 315 305 297 288 291 299 303 301 296 294 292 293 292 293 292 292 295 296 296 296 293 289 288 292 289 288 290 288 287 287 283 278 275 281 289 294 296 296 297 299 296 295
301 294 311 303 293 292 292 297 300 299 301 300 299 296 293 294 293 292 293 295 299 298 291 293 289 284 287 292 294 291 289 287 279 281 281 279 280 293 292 295 296 296 295 294 295
301 305 314 301 288 289 295 298 300 297 298 298 297 299 298 295 292 294 295 299 297 295 293 293 287 281 285 289 291 289 289 289 286 283 281 274 279 293 294 294 294 293 294 295 294
302 296 301 301 294 294 293 294 296 300 299 300 298 299 297 295 296 293 294 298 297 295 299 297 289 285 282 283 287 284 286 288 286 279 281 281 282 289 291 292 293 293 294 293 293
300 296 299 292 296 293 294 296 296 295 299 300 297 297 295 291 292 292 295 295 296 298 296 292 286 287 287 287 287 285 285 286 285 284 282 282 284 287 291 292 293 294 294 293 292
302 297 295 292 299 296 294 295 296 297 297 295 296 297 296 293 294 292 295 292 289 294 292 293 285 286 285 287 286 284 286 286 285 284 285 285 285 292 293 294 293 293 293 292 291
306 306 299 293 294 294 294 296 298 300 300 300 298 295 292 295 297 297 296 296 295 293 291 289 284 282 279 282 281 277 284 286 286 287 287 284 288 292 291 292 292 291 291 290 290

GFSSW_sfc_thetae_045.txt.gz
Theta_e
320 320 319 318 318 319 318 317 315 316 318 319 318 318 318 318 316 314 307 312 316 323 319 310 309 309 310 307 306 302 298 299 302 303 305 312 309 314 319 317 318 316 323 327 329
319 320 320 319 317 317 317 316 315 315 318 318 318 317 318 317 311 309 318 323 324 324 309 308 305 308 306 305 305 301 298 299 307 310 308 310 310 310 315 315 313 316 323 327 327
319 319 319 319 317 317 317 315 314 315 318 318 317 317 317 316 309 306 324 324 325 322 311 310 307 306 303 304 303 300 298 300 307 311 313 310 307 313 315 312 315 315 321 325 325
318 319 318 318 317 317 316 314 314 317 317 317 317 318 317 313 297 310 330 327 327 313 310 309 306 304 302 300 303 298 300 302 310 310 305 306 307 312 316 312 319 323 325 324 323
317 317 317 318 317 316 315 314 315 316 316 317 317 317 313 308 307 320 328 327 316 310 308 306 305 305 301 301 299 298 299 299 301 304 301 303 306 311 309 317 320 323 324 323 323
317 317 317 317 317 317 317 316 315 315 316 316 317 317 311 300 311 321 318 314 312 310 308 309 307 309 303 300 299 299 298 298 300 303 301 301 300 307 307 316 317 321 321 321 320
316 316 316 317 316 316 316 315 315 314 315 316 316 314 310 307 313 315 314 313 313 310 308 309 311 307 306 300 300 299 297 298 299 299 299 301 297 298 312 315 314 317 317 316 316
317 316 315 315 315 315 314 314 314 314 315 316 316 313 306 315 315 313 313 310 312 312 311 311 312 309 303 303 300 298 297 294 298 299 299 300 294 296 314 314 312 313 314 314 314
316 316 315 314 313 313 313 313 313 314 315 315 311 311 304 315 311 312 312 308 310 310 311 309 309 304 302 298 296 296 292 294 296 300 299 299 295 299 308 313 311 311 311 312 312
315 315 314 313 313 312 311 312 313 313 313 314 313 305 307 305 310 307 311 311 310 310 307 307 303 299 298 296 290 292 292 293 295 298 298 296 295 300 304 308 306 307 309 310 310
315 315 314 313 312 311 309 307 305 304 308 303 303 303 305 310 310 306 309 311 309 306 301 302 299 296 296 297 295 295 294 293 295 297 297 295 297 299 303 305 305 306 308 308 309
314 314 313 313 312 311 308 303 305 310 304 307 307 307 309 310 304 305 311 306 305 300 301 299 295 297 299 297 296 295 294 293 296 297 297 296 296 300 302 302 304 306 306 308 310
313 313 313 312 312 309 306 308 316 315 307 304 307 306 305 308 303 303 308 306 302 299 297 297 297 300 299 298 297 296 295 294 294 296 297 296 294 297 301 303 304 306 307 308 310
312 312 311 311 307 306 305 312 313 315 294 296 301 304 305 306 303 306 307 305 301 298 296 298 300 298 297 297 297 294 298 296 294 293 291 295 289 294 298 300 303 304 306 307 308
312 312 311 311 307 306 310 322 318 309 282 298 300 306 304 302 302 303 307 305 299 298 298 296 298 297 297 296 299 296 299 297 295 294 293 294 292 293 298 298 301 303 305 307 309
309 312 311 309 307 312 319 314 309 294 285 295 300 299 299 301 301 302 305 305 303 300 300 298 301 300 299 299 299 300 299 297 296 295 289 292 293 294 294 297 301 303 305 306 307
309 311 310 311 309 321 316 306 293 287 297 293 295 298 299 298 298 300 298 298 296 294 293 297 297 299 301 298 300 299 296 289 287 288 287 292 291 295 297 299 304 303 304 306 308
309 310 310 311 316 317 307 296 287 292 294 297 296 297 295 297 298 298 297 295 298 296 293 292 289 297 299 298 297 296 295 290 283 285 288 292 289 294 299 301 303 305 306 307 307
310 308 309 314 315 312 300 289 289 292 298 295 296 294 295 298 297 297 295 295 296 297 294 292 291 298 298 300 299 295 292 295 289 287 286 289 293 297 299 299 302 304 305 306 307
308 307 310 320 318 307 296 290 293 300 300 298 292 295 292 295 295 295 296 298 296 298 300 296 291 296 297 299 299 297 297 291 290 282 280 285 288 291 296 298 300 302 304 305 305
310 305 311 318 309 300 291 292 298 304 302 297 295 294 295 295 295 294 295 298 299 299 300 297 294 293 296 294 294 295 293 291 292 288 283 281 286 295 297 300 301 303 303 303 302
303 296 314 307 296 294 292 296 300 301 302 302 300 298 296 297 296 295 295 298 301 301 297 297 293 290 291 296 298 296 294 293 288 285 286 286 288 297 298 300 301 301 300 300 299
299 305 314 304 291 291 296 299 301 299 300 301 300 301 301 297 294 296 297 301 299 299 297 297 291 287 289 293 296 294 294 291 289 289 286 286 287 296 297 297 300 299 298 297 297
305 298 304 301 297 295 295 295 297 302 302 302 300 301 300 297 298 295 297 300 300 299 299 299 291 290 287 289 292 290 291 291 291 287 286 287 288 292 295 296 296 297 298 298 297
302 299 302 295 295 295 297 297 297 297 302 302 300 300 298 294 295 295 297 298 299 299 298 297 291 291 290 290 290 289 289 290 289 289 288 289 288 292 296 297 297 298 297 296 296
300 297 296 296 299 296 296 296 297 299 300 299 298 299 299 296 297 295 297 296 294 298 297 295 290 290 288 289 288 288 289 289 289 288 289 288 288 294 296 298 297 297 296 295 295
307 305 300 293 296 293 294 297 298 301 301 301 300 298 296 299 300 299 299 298 297 297 294 292 290 287 284 285 284 284 288 290 289 290 291 288 293 296 295 296 297 297 296 295 294

GFSSW_sfc_thetae_048.txt.gz
Theta_e
320 320 319 319 318 318 317 319 316 316 315 318 319 318 318 318 317 318 311 315 317 324 320 315 314 313 313 310 312 310 303 302 305 307 310 316 312 317 321 319 321 322 326 331 332
320 320 320 320 319 317 317 318 316 315 315 318 318 318 318 318 316 312 320 323 324 326 315 313 310 311 308 307 310 306 303 302 310 315 311 311 311 311 315 316 317 322 331 334 333
319 319 319 319 319 317 317 317 315 315 315 318 318 318 318 318 312 311 325 325 325 324 317 317 313 310 305 308 308 306 303 306 311 316 315 312 310 314 313 311 318 319 328 331 333
319 318 318 319 318 317 316 316 315 315 316 317 318 318 318 318 301 316 329 329 326 320 316 314 311 306 303 303 307 302 305 308 313 314 312 309 312 311 315 315 320 325 331 331 331
318 317 318 318 318 317 316 315 316 316 317 317 317 317 317 311 309 324 328 326 320 316 313 312 308 306 302 304 306 303 303 309 312 312 311 315 310 312 315 320 325 330 330 329 328
317 316 317 317 318 317 317 316 316 316 316 316 317 317 315 304 315 323 321 319 317 315 314 313 309 310 307 306 304 305 304 308 305 310 307 309 310 312 314 321 324 327 326 326 324
316 316 316 317 317 317 316 316 315 315 315 316 316 317 312 309 318 323 319 317 318 316 312 315 314 311 310 302 303 303 299 301 303 309 308 309 305 304 315 320 321 321 323 323 323
316 316 316 315 315 315 315 314 314 315 315 315 316 317 309 317 321 318 319 317 318 318 315 315 315 311 308 305 304 301 302 298 302 308 304 306 299 303 318 317 318 320 321 321 321
316 315 315 314 314 313 314 313 313 314 314 316 316 315 307 319 313 317 317 311 314 315 315 313 314 308 305 302 299 299 295 297 298 304 303 303 300 304 315 317 316 318 319 320 319
315 315 315 314 313 312 312 313 313 314 315 317 316 311 314 308 313 315 315 314 313 312 309 308 308 304 303 300 293 296 296 297 297 301 304 301 301 304 314 316 315 316 318 319 319
315 315 314 314 313 312 313 315 311 310 312 308 306 308 308 314 315 311 312 313 313 310 302 307 303 298 301 302 301 300 298 297 300 302 302 301 302 303 311 315 314 316 317 317 318
314 314 314 313 313 312 315 309 311 316 308 311 310 310 312 313 307 309 314 307 306 302 306 303 299 302 303 302 301 300 299 298 300 301 303 303 303 305 309 312 315 315 316 317 318
314 314 313 313 312 313 313 311 322 319 311 308 310 308 308 312 306 306 311 309 304 302 302 301 301 303 303 302 300 300 299 299 298 300 303 303 300 303 305 310 311 314 316 318 319
313 313 312 311 309 315 310 315 317 318 303 300 304 307 308 310 305 310 311 308 305 302 302 302 303 302 303 301 302 298 302 301 300 299 295 301 293 301 305 305 308 311 314 316 316
313 313 311 311 315 309 317 320 323 320 287 301 304 312 310 306 306 306 312 309 302 302 302 300 301 301 300 300 302 300 303 302 300 300 299 298 295 300 304 303 306 310 313 316 317
310 311 311 312 315 318 324 327 323 301 287 298 304 303 303 304 304 306 308 310 308 304 305 303 306 305 303 304 304 305 303 303 302 300 293 297 296 296 301 303 307 311 313 315 315
309 311 313 317 310 330 328 319 300 292 300 297 299 302 301 300 301 303 303 302 300 298 298 301 301 304 305 303 305 304 300 293 291 291 290 298 296 297 303 304 308 310 312 314 313
308 310 313 317 322 324 321 307 292 295 297 301 300 301 298 301 301 302 302 300 303 302 299 296 293 300 303 303 300 300 299 293 283 287 292 297 293 300 305 306 309 312 313 312 312
309 314 316 318 320 321 312 297 295 298 302 299 300 297 298 300 300 301 301 301 302 303 297 296 295 302 302 304 304 300 297 301 294 294 292 296 298 302 304 305 307 310 310 310 312
313 312 313 324 323 316 307 297 300 304 303 302 295 298 296 298 298 299 300 302 301 303 306 301 294 300 301 304 304 302 303 295 297 286 284 290 292 295 300 303 305 308 308 311 312
314 306 320 328 326 312 300 300 301 307 306 301 298 298 299 299 299 298 299 302 303 302 306 304 300 297 300 299 298 299 298 298 298 294 287 286 292 302 302 305 306 308 310 311 312
312 302 322 325 307 308 302 302 301 305 307 304 304 302 300 301 300 299 299 301 305 305 302 303 301 296 297 301 302 301 299 299 292 290 294 293 291 301 304 306 308 309 310 312 311
308 310 317 314 302 302 304 302 304 304 305 304 303 304 305 302 298 301 302 304 304 304 303 303 299 293 294 298 301 298 300 299 296 297 292 290 292 301 304 304 308 309 308 308 307
309 305 311 311 309 305 302 301 300 307 305 306 305 307 305 302 304 301 302 302 303 303 299 302 300 297 293 294 299 295 297 298 297 291 291 292 293 297 301 303 305 308 308 306 305
312 305 309 303 303 304 304 302 299 301 306 307 304 305 304 300 301 301 303 301 302 300 304 304 297 297 295 295 295 296 296 297 295 296 292 294 293 297 300 303 305 307 306 304 304
308 306 307 308 306 302 300 301 300 303 304 303 304 306 306 303 303 301 303 302 301 303 303 301 297 296 293 294 294 292 295 296 297 297 296 296 295 301 302 303 304 304 304 302 303
318 312 311 300 303 301 300 301 301 307 305 305 308 306 304 305 307 309 307 306 305 304 302 300 298 294 290 291 291 290 295 296 296 298 297 294 298 301 300 301 303 304 303 303 302

GFSSW_sfc_thetae_051.txt.gz
Theta_e
320 321 321 321 320 320 319 318 318 318 316 316 317 319 319 319 317 318 314 317 319 325 319 318 317 315 313 311 312 312 304 301 306 304 310 317 315 316 322 317 321 323 324 328 338
320 320 320 320 320 320 318 318 317 317 316 316 318 319 319 318 317 314 321 327 327 327 314 314 311 311 309 309 309 307 304 303 311 313 312 315 315 314 314 316 317 324 333 335 336
319 319 319 319 320 319 318 317 317 316 315 315 318 319 318 318 314 314 327 327 326 324 318 317 314 310 307 308 308 307 303 309 310 317 316 313 314 314 310 308 313 318 328 332 333
319 319 318 318 319 319 317 317 316 316 316 317 318 318 318 319 304 318 330 330 327 320 318 315 311 307 306 304 309 304 308 307 312 313 312 311 313 310 311 313 316 328 330 332 330
318 318 318 318 318 318 318 317 317 317 317 317 317 318 318 313 311 324 330 328 322 317 315 312 310 308 304 306 307 304 306 312 312 312 313 313 310 310 313 316 321 328 328 329 329
318 317 317 317 318 318 317 317 317 316 316 317 317 317 317 306 318 322 323 321 319 317 315 314 311 311 308 306 306 308 309 309 311 311 311 312 311 312 315 319 322 324 325 326 325
317 316 316 317 317 317 317 316 316 316 316 316 317 318 313 310 320 324 322 319 320 318 315 317 316 311 312 307 308 306 305 307 307 311 310 312 306 306 315 318 319 321 322 322 321
317 316 316 315 315 315 315 315 315 315 315 316 317 319 310 319 322 320 321 319 321 320 318 318 317 313 311 308 305 303 303 298 305 308 311 309 300 308 316 317 316 317 318 319 319
316 315 315 315 314 314 314 314 314 315 315 317 318 317 309 318 314 318 320 315 316 318 317 315 314 310 308 302 300 301 295 298 300 308 307 306 300 309 316 316 316 316 317 318 318
316 315 315 315 314 313 313 313 314 314 315 319 318 312 316 310 315 317 318 316 315 315 311 311 310 305 304 300 293 296 297 300 300 305 305 302 303 310 315 314 316 318 319 319 318
315 315 315 314 314 313 313 317 312 313 315 309 310 309 311 316 318 315 316 314 314 312 303 309 303 300 301 303 302 301 299 298 301 304 302 302 303 306 313 314 315 317 317 318 320
315 315 315 314 314 313 317 312 314 319 311 312 310 311 314 315 309 312 315 309 309 302 307 305 300 304 305 303 302 301 299 298 302 303 303 302 302 306 311 312 314 315 317 319 320
314 315 314 314 313 314 315 314 324 323 312 310 311 310 311 312 308 308 312 310 306 303 303 301 303 306 303 302 301 301 299 300 299 302 303 303 302 304 310 313 316 317 319 320 321
314 314 313 312 308 317 314 319 320 322 305 303 305 308 310 312 306 313 313 310 306 301 304 302 306 303 302 301 302 298 304 302 301 300 295 304 292 302 306 309 312 315 318 319 321
313 314 312 310 319 313 321 323 323 324 291 304 304 315 312 307 307 307 314 310 304 303 303 300 303 303 301 302 305 301 305 303 302 300 298 300 295 299 307 305 308 313 316 319 320
313 313 312 314 317 321 324 330 326 303 290 299 305 304 305 307 305 308 308 311 310 304 306 303 309 306 306 305 305 306 304 303 303 301 294 298 298 297 303 305 308 312 315 317 319
311 310 313 320 313 323 329 324 302 294 302 298 300 304 303 302 303 304 303 302 300 296 298 302 303 306 308 303 306 305 301 293 292 292 291 300 297 298 305 307 310 311 314 317 319
309 309 313 318 323 329 324 311 294 298 300 303 302 302 300 302 302 302 302 299 304 303 298 296 295 303 307 305 302 302 301 294 286 288 292 299 292 299 308 309 311 314 316 318 316
308 314 317 319 323 327 314 299 298 300 302 300 301 298 299 301 301 302 301 300 303 304 297 297 296 305 305 306 305 302 297 303 296 297 293 294 300 305 307 307 310 312 314 315 314
312 314 314 324 324 321 309 299 302 305 305 303 297 299 296 299 299 299 300 304 303 306 309 302 296 303 304 306 306 304 306 296 297 287 286 292 294 297 301 304 307 310 312 313 314
313 308 319 325 322 311 302 303 304 307 308 302 300 299 300 299 300 299 299 304 306 306 309 305 301 300 302 301 299 301 299 299 300 297 289 287 293 304 303 306 306 310 312 313 314
312 303 322 325 303 306 304 306 305 305 310 307 305 303 301 302 300 300 299 303 309 308 302 306 302 296 299 304 305 304 301 301 295 292 295 294 293 304 306 307 309 309 312 314 315
307 310 323 320 299 304 307 306 306 304 306 306 303 304 305 302 299 302 302 308 308 307 304 306 299 293 296 300 303 300 301 301 301 299 294 291 293 305 306 305 308 309 311 313 314
309 304 309 314 309 307 304 304 302 307 306 308 305 306 304 302 304 302 303 306 307 308 301 304 301 297 293 296 301 299 300 301 299 294 294 294 296 300 303 303 305 308 311 312 313
311 305 309 301 304 306 308 305 302 301 307 309 306 305 304 300 302 302 305 305 306 301 305 306 299 300 300 300 299 299 299 299 298 298 295 296 296 299 301 304 305 307 309 310 310
308 307 309 306 307 307 304 304 302 302 305 305 304 305 306 303 304 302 305 305 304 307 306 306 299 300 297 300 299 297 299 299 299 299 298 298 297 304 305 305 304 306 308 308 308
317 318 310 305 306 305 306 305 303 305 309 310 308 305 306 307 312 313 312 310 309 307 305 304 301 297 291 295 295 291 297 298 299 300 299 296 301 304 302 302 303 306 307 307 308

GFSSW_sfc_thetae_054.txt.gz
Theta_e
321 320 321 321 321 320 320 319 318 318 319 317 317 318 319 319 317 316 312 317 319 326 321 316 317 314 314 309 311 310 300 298 301 305 310 311 311 318 320 316 318 322 316 321 333
320 320 320 321 320 320 320 319 318 318 318 317 317 318 319 318 315 312 320 328 328 326 313 312 311 312 308 307 308 304 300 300 308 311 310 310 309 312 313 310 316 322 323 326 331
320 320 319 319 320 320 319 318 317 318 317 317 318 319 318 318 313 314 329 329 328 323 314 313 314 310 305 307 306 305 300 306 313 314 314 310 310 312 312 309 311 320 326 330 331
320 319 319 319 319 319 318 318 318 318 318 318 318 318 318 316 304 316 331 329 328 317 315 314 312 306 303 303 307 302 306 309 312 314 311 311 313 311 312 313 319 328 328 328 327
319 319 318 318 318 318 318 317 318 317 317 318 318 318 316 312 311 322 331 330 321 314 313 311 308 306 302 305 306 304 306 311 312 311 310 312 308 307 312 316 326 327 326 325 327
318 318 317 317 318 318 317 317 316 317 317 317 317 317 315 305 319 323 322 323 319 314 313 313 310 310 306 306 305 307 307 309 310 310 311 310 309 311 313 318 320 321 323 324 325
318 317 317 317 317 317 317 316 316 316 316 317 317 316 312 309 320 321 322 319 319 318 313 316 314 311 310 307 308 308 304 307 308 310 305 309 306 307 315 319 317 318 321 320 321
318 317 316 316 315 315 315 315 315 316 316 316 317 316 309 320 321 318 320 319 320 320 318 318 318 312 310 311 305 303 304 298 304 307 309 307 297 309 315 316 315 317 317 318 319
318 316 315 314 315 315 314 314 315 316 316 316 316 315 309 320 314 317 319 315 316 317 318 316 313 309 309 303 298 300 294 297 300 306 307 305 301 309 315 314 313 314 315 315 315
317 316 315 314 314 314 313 314 316 315 315 316 316 309 314 310 314 315 319 317 314 315 311 311 309 305 304 300 292 294 295 298 298 302 305 302 301 308 312 313 312 313 314 315 314
317 316 315 315 314 314 313 316 312 311 313 307 309 308 311 315 318 314 317 313 313 311 303 308 302 298 300 302 302 301 299 298 301 304 302 300 301 305 309 312 312 313 315 315 316
316 316 315 315 314 314 314 312 314 318 309 316 311 311 313 315 309 311 316 308 308 303 305 302 299 304 305 304 302 300 299 297 300 302 301 300 300 304 307 309 313 314 315 317 318
315 315 315 314 314 313 313 312 319 321 310 311 314 307 309 313 308 308 312 309 305 302 302 300 300 306 304 301 299 300 299 299 298 300 302 301 298 302 307 310 312 314 316 318 319
314 314 314 313 308 316 313 319 319 323 303 304 307 307 311 311 306 313 313 309 306 302 303 302 305 303 302 300 301 297 303 301 300 298 292 302 290 300 304 306 310 313 314 317 319
314 314 313 310 315 315 320 321 324 321 291 305 306 314 311 306 308 307 313 309 303 303 303 300 301 301 300 301 305 299 303 303 301 298 298 296 293 298 303 303 307 312 315 318 320
313 313 313 313 315 318 323 329 321 303 289 299 304 303 304 305 306 308 307 311 310 304 304 302 307 305 304 304 305 307 303 303 302 299 290 295 295 295 299 303 307 311 315 317 319
312 313 312 318 313 325 325 322 300 293 303 299 299 303 302 302 303 303 302 301 299 296 296 301 301 306 307 302 305 304 300 292 288 289 290 298 295 297 303 307 309 311 313 317 318
311 310 312 316 321 327 323 309 293 298 300 303 302 302 299 302 302 302 300 298 302 301 296 295 294 302 306 302 300 301 298 292 286 286 291 298 292 298 307 309 313 313 314 317 318
309 311 313 318 320 324 313 298 295 300 303 301 301 297 298 301 301 300 299 299 301 303 296 296 295 303 306 306 305 301 297 302 295 297 293 294 297 305 307 306 310 312 314 315 317
310 309 309 322 324 317 306 298 301 306 305 304 296 299 295 298 298 299 298 302 301 304 307 301 293 302 304 306 305 302 304 296 297 287 286 290 293 296 301 303 307 310 312 315 316
310 303 315 323 322 309 299 301 304 308 307 303 300 298 299 298 299 298 298 302 304 305 307 304 299 299 303 300 297 300 298 298 297 297 290 288 291 305 303 305 305 309 312 314 314
308 297 318 323 303 302 300 304 305 307 307 306 305 302 300 301 299 298 298 301 308 307 301 304 302 296 298 304 305 303 300 300 295 291 296 294 292 305 307 307 308 308 312 314 314
303 307 321 319 296 297 302 304 306 305 305 305 304 304 305 301 298 301 302 308 308 306 303 306 300 293 294 300 303 299 300 300 300 301 294 292 293 305 305 306 307 307 311 312 313
305 300 308 312 307 300 300 301 302 308 305 306 305 306 303 301 304 301 301 306 308 307 303 308 301 296 292 295 300 298 299 300 299 295 294 294 295 300 302 302 304 307 309 311 312
307 303 307 298 303 303 305 303 301 301 306 307 304 304 302 299 300 300 303 305 306 302 305 306 296 297 298 299 300 299 299 299 297 298 294 297 296 299 302 304 305 306 308 309 311
303 305 310 305 306 302 301 304 302 304 303 302 303 304 304 301 301 299 303 306 303 306 305 306 299 300 298 300 300 297 298 299 298 298 298 298 297 304 305 305 304 305 306 306 309
310 315 309 303 304 300 302 305 304 307 306 306 307 306 304 306 310 312 312 311 308 306 304 304 302 298 293 296 294 289 296 297 298 299 299 294 300 304 302 303 304 304 305 307 309

GFSSW_sfc_thetae_057.txt.gz
Theta_e
321 321 321 321 320 320 320 319 319 318 318 318 318 317 318 319 317 313 307 314 314 323 321 312 311 311 305 301 303 299 290 289 292 303 304 311 310 314 319 313 316 318 317 325 329
321 321 320 320 320 319 319 319 318 318 318 318 318 318 319 318 312 309 317 323 326 325 310 307 306 307 301 300 299 294 289 293 306 308 306 308 311 312 312 313 312 314 321 328 326
321 321 320 320 319 319 319 318 318 318 319 318 318 319 318 316 309 312 328 327 327 322 310 309 309 306 300 299 298 296 293 303 309 310 310 308 309 313 309 304 311 309 319 324 320
320 320 319 319 319 318 318 317 317 318 318 318 318 318 317 313 300 309 329 328 328 314 310 308 307 302 298 296 300 295 305 312 311 311 310 308 308 309 309 310 316 317 323 324 319
319 319 319 319 318 318 317 317 317 317 317 317 318 318 312 307 310 319 329 327 318 312 308 308 305 303 298 299 300 299 308 309 309 309 308 311 306 305 306 318 324 324 327 324 321
319 318 317 317 317 317 317 316 316 316 316 317 318 317 311 303 316 322 324 320 316 310 307 307 306 306 302 301 300 303 306 306 306 306 310 307 306 306 309 317 320 324 323 322 323
319 318 317 317 316 316 316 316 315 315 316 317 317 314 308 305 313 312 315 316 314 311 308 311 310 305 306 302 306 305 300 305 306 307 306 309 303 303 308 316 316 319 320 319 320
319 317 316 315 314 314 315 314 314 315 316 317 317 311 304 318 315 315 314 313 317 316 314 313 312 308 306 306 303 299 299 294 304 306 307 305 295 305 312 311 310 311 317 316 321
318 317 316 314 313 314 314 313 314 315 316 316 310 308 306 321 315 315 313 311 314 315 314 314 310 305 305 299 295 297 291 294 297 306 305 302 296 305 311 310 309 309 309 314 311
318 317 316 314 313 313 312 313 314 313 314 314 313 303 310 309 313 312 313 314 312 312 309 308 305 301 299 296 289 292 293 295 294 300 302 298 297 304 307 308 307 307 308 308 308
318 317 315 314 313 313 311 310 307 306 307 305 305 305 307 313 315 310 313 310 309 308 300 305 297 295 297 299 299 298 296 294 297 299 298 297 299 304 306 308 307 306 308 308 309
317 316 315 314 314 313 309 304 309 311 305 312 310 310 311 311 306 309 312 305 304 301 303 298 295 302 304 302 300 298 296 295 299 300 298 295 296 300 306 305 305 306 308 308 313
316 316 315 313 313 309 308 308 314 312 304 309 312 311 310 309 305 306 308 305 302 301 301 297 300 304 303 301 299 298 295 296 296 298 296 294 293 297 302 307 307 308 311 312 313
315 315 313 312 307 310 308 315 314 311 297 302 305 310 310 306 304 311 311 305 303 300 301 300 304 302 301 299 300 294 302 301 298 295 288 296 287 295 300 302 306 310 310 312 315
315 314 312 312 307 308 316 318 314 312 285 305 306 311 306 304 305 305 310 305 299 301 301 299 300 300 298 300 303 298 303 301 299 295 293 293 289 293 299 299 302 305 308 311 315
314 313 312 310 309 310 314 314 315 298 286 300 304 301 301 304 304 305 304 306 304 300 301 300 304 302 302 303 303 305 301 300 298 295 287 294 292 289 294 299 304 307 309 312 314
313 312 311 313 307 315 313 312 295 289 302 297 297 301 300 299 300 301 299 297 294 291 292 297 299 303 306 300 302 300 295 287 284 284 284 297 293 293 300 305 306 307 308 311 313
312 311 311 312 313 315 314 303 290 296 297 303 300 299 296 299 299 299 296 293 297 296 292 291 290 299 304 299 297 297 296 287 282 282 286 297 291 296 302 306 308 309 309 312 310
311 310 308 310 312 313 307 293 291 298 301 301 298 295 295 298 299 297 295 294 296 297 291 292 293 303 305 304 301 297 294 299 292 292 284 290 294 301 302 304 305 306 310 309 309
309 307 306 313 315 309 301 294 299 304 304 303 295 296 292 295 295 296 295 298 298 300 301 300 292 300 303 304 302 299 301 291 290 281 279 286 288 291 297 300 305 305 307 309 310
309 302 308 314 314 304 293 296 301 306 306 302 299 296 296 295 296 294 296 299 300 304 303 300 296 296 302 298 296 296 293 294 293 290 282 280 286 298 299 301 302 305 309 309 309
307 297 310 316 298 297 294 299 302 304 307 305 303 302 298 297 297 295 296 298 303 305 298 301 296 290 296 302 302 298 296 296 285 286 288 284 286 298 300 302 303 304 309 310 310
302 302 312 312 289 292 297 299 302 303 303 303 303 304 302 298 296 299 298 306 304 302 299 301 294 285 290 294 299 295 297 296 296 293 288 280 286 299 301 301 303 301 306 310 308
302 295 304 307 298 295 295 295 297 304 304 305 304 304 301 297 300 299 300 306 306 304 301 303 297 291 285 290 295 293 296 296 294 284 287 287 291 296 297 298 300 300 303 306 308
302 297 304 296 298 297 297 296 297 298 305 306 302 301 299 294 296 297 301 302 305 302 302 300 292 294 294 296 297 296 296 296 295 293 287 291 293 296 296 298 298 300 302 304 305
299 300 304 302 303 299 296 295 296 300 302 301 299 302 301 297 297 295 301 301 299 301 299 301 292 293 291 297 296 292 295 295 295 295 293 293 292 297 298 299 298 299 301 302 306
305 305 304 299 300 298 297 297 298 302 304 306 302 302 300 301 304 304 306 305 304 301 297 298 294 288 286 291 290 283 291 293 294 295 294 289 294 298 296 298 297 298 300 301 305

GFSSW_sfc_thetae_060.txt.gz
Theta_e
321 321 321 321 320 319 319 319 318 318 318 319 319 318 319 319 316 313 305 309 313 323 320 310 308 307 304 298 300 296 289 287 289 295 303 310 310 313 318 314 316 319 317 322 326
322 321 321 320 319 319 319 318 318 318 318 318 319 319 319 318 311 308 315 323 324 326 310 306 303 304 300 297 298 292 287 289 300 306 304 307 310 310 311 311 312 316 324 326 324
322 321 320 320 319 319 318 317 317 318 318 318 318 319 317 316 308 312 325 326 326 324 308 307 307 303 297 297 296 292 290 300 307 308 307 305 307 311 308 302 310 312 321 324 322
320 320 320 320 319 318 317 316 317 318 318 318 318 318 317 312 298 308 327 328 328 313 309 306 305 300 297 295 296 293 300 307 309 309 308 305 309 308 306 308 316 314 323 323 322
319 318 319 319 319 317 316 316 316 317 317 317 317 318 311 304 306 317 328 326 315 311 306 305 303 301 296 297 298 296 306 308 309 308 309 310 304 305 307 318 318 322 321 318 318
318 318 317 317 317 317 316 315 315 316 316 316 317 317 309 299 313 322 320 317 312 307 304 305 303 304 301 301 299 303 305 304 304 306 307 305 303 306 307 315 317 318 318 318 319
319 318 317 317 317 316 315 315 314 315 315 316 317 314 307 300 309 309 311 313 313 309 306 307 307 304 303 302 304 304 301 302 303 305 302 304 300 302 308 313 318 320 319 318 319
319 318 316 315 315 314 314 313 314 314 315 316 316 310 302 315 313 313 312 311 313 312 310 311 310 306 303 304 301 297 297 293 301 304 306 304 295 303 309 313 314 319 319 318 318
319 318 316 314 313 313 312 313 313 315 316 316 308 307 303 318 313 316 314 309 311 312 311 312 307 302 303 297 293 295 290 292 298 304 302 300 295 305 311 312 311 314 316 315 313
319 318 316 314 313 312 311 313 314 313 313 314 311 300 307 306 312 312 311 311 308 310 307 305 302 299 297 293 289 291 292 294 293 301 301 298 296 303 308 309 307 312 314 312 312
318 317 316 314 313 312 309 307 305 305 305 302 301 300 305 310 312 308 309 308 309 305 298 302 296 292 294 299 299 298 296 293 295 299 299 296 295 300 304 305 306 310 313 314 313
317 317 316 314 313 313 307 302 305 305 299 309 309 307 310 310 304 306 311 303 303 298 301 298 293 300 303 301 300 298 295 294 297 297 298 294 295 300 304 306 307 305 305 306 309
316 316 316 313 312 307 305 306 310 310 300 306 310 309 310 312 304 304 307 304 301 298 298 295 298 303 302 299 298 297 295 293 293 296 297 293 293 297 303 305 306 307 308 308 311
315 315 314 312 305 306 306 313 314 309 294 299 305 309 311 307 300 307 308 304 301 297 298 297 302 300 298 298 299 292 299 298 296 291 286 294 284 293 298 304 305 306 307 308 311
314 315 313 311 306 306 313 311 311 310 278 302 304 313 309 300 303 303 307 303 298 299 299 296 298 298 297 298 300 296 301 299 297 292 290 291 287 290 298 297 302 305 307 310 313
313 314 312 310 308 308 310 312 313 295 282 300 305 301 298 299 302 303 303 303 303 300 300 297 301 301 299 302 302 302 298 298 296 292 286 291 289 288 293 298 301 304 308 310 313
313 313 311 312 304 312 313 310 293 288 301 297 297 298 298 297 299 299 297 295 292 290 290 296 297 300 303 298 300 298 293 284 283 283 283 294 290 291 297 300 301 303 306 309 313
312 311 312 311 309 311 311 301 288 294 296 302 298 297 294 297 297 297 294 291 295 294 290 289 288 297 301 298 294 296 293 285 280 280 284 294 288 293 301 303 305 307 308 311 314
311 311 310 311 310 310 305 293 288 296 300 297 296 293 293 296 297 295 293 292 295 295 290 290 292 301 302 302 299 295 291 297 290 289 284 287 292 298 301 300 303 304 308 308 310
307 307 307 311 311 308 301 291 296 303 303 302 293 295 291 293 293 293 293 296 295 298 298 296 290 299 302 303 301 297 300 290 290 280 279 284 286 290 296 299 301 302 305 307 308
305 301 309 313 311 301 292 293 298 303 305 301 297 295 294 293 294 292 294 297 298 299 300 298 293 293 299 296 294 294 292 293 292 287 281 279 284 294 297 301 301 303 307 308 307
301 295 310 314 296 293 293 297 299 301 305 303 303 300 296 295 293 293 294 296 301 302 297 299 294 288 294 299 301 296 294 294 285 285 286 282 284 296 299 301 303 304 308 309 309
298 301 309 310 290 289 295 298 300 298 300 301 300 302 300 296 291 295 296 303 301 301 297 299 292 285 290 294 297 294 295 295 294 289 285 279 284 297 298 299 301 302 305 309 309
300 293 301 303 299 292 291 294 295 301 300 302 301 303 299 296 298 294 298 303 304 302 301 301 294 289 285 289 292 290 294 294 291 282 285 286 289 294 296 297 299 300 303 307 309
301 296 299 293 294 295 294 294 294 294 299 303 300 300 299 294 294 294 300 300 303 301 300 298 291 293 293 294 295 293 293 293 292 291 286 289 290 294 295 296 297 299 301 304 305
297 298 301 297 298 294 293 292 293 295 297 295 297 301 300 295 295 293 299 298 296 299 297 298 290 290 289 293 292 290 292 293 293 292 292 291 291 296 295 296 297 299 299 302 303
299 303 300 296 296 294 292 293 294 297 299 299 302 301 298 300 301 299 304 303 302 298 295 295 292 286 284 288 289 283 289 292 293 293 293 288 291 294 294 295 294 295 297 302 303